Time,TemperatureF,DewpointF,PressureIn,WindDirection,WindDirectionDegrees,WindSpeedMPH,WindSpeedGustMPH,Humidity,HourlyPrecipIn,Conditions,Clouds,dailyrainin,SolarRadiationWatts/m^2,SoftwareType,DateUTC
2013-05-14 00:02:00,58.3,40.2,29.86,SSE,163,5.0,8.0,51,0.00,,,0.00,0,Wunderground v.1.15,2013-05-14 05:02:00,
2013-05-14 00:03:00,58.4,40.3,29.86,SSE,158,6.0,8.0,51,0.00,,,0.00,0,Wunderground v.1.15,2013-05-14 05:03:00,
2013-05-14 00:04:00,58.4,40.3,29.86,East,101,6.0,8.0,51,0.00,,,0.00,0,Wunderground v.1.15,2013-05-14 05:04:00,
2013-05-14 00:05:00,58.4,40.3,29.86,East,95,6.0,8.0,51,0.00,,,0.00,0,Wunderground v.1.15,2013-05-14 05:05:00,
2013-05-14 00:06:00,58.4,40.3,29.86,South,173,6.0,8.0,51,0.00,,,0.00,0,Wunderground v.1.15,2013-05-14 05:06:00,
2013-05-14 00:10:00,58.4,40.3,29.86,South,178,5.0,5.0,51,0.00,,,0.00,0,Wunderground v.1.15,2013-05-14 05:10:00,
2013-05-14 00:11:00,58.4,40.3,29.86,SSE,151,5.0,5.0,51,0.00,,,0.00,0,Wunderground v.1.15,2013-05-14 05:11:00,
2013-05-14 00:12:00,58.4,40.3,29.86,SE,139,4.0,9.0,51,0.00,,,0.00,0,Wunderground v.1.15,2013-05-14 05:12:00,
2013-05-14 00:14:00,58.4,40.3,29.86,SSE,150,4.0,9.0,51,0.00,,,0.00,0,Wunderground v.1.15,2013-05-14 05:14:00,
2013-05-14 00:16:00,58.4,40.8,29.85,SSE,154,4.0,9.0,52,0.00,,,0.00,0,Wunderground v.1.15,2013-05-14 05:16:00,
2013-05-14 00:17:00,58.4,40.8,29.85,SE,144,4.0,9.0,52,0.00,,,0.00,0,Wunderground v.1.15,2013-05-14 05:17:00,
2013-05-14 00:19:00,58.4,40.8,29.85,SSE,167,5.0,9.0,52,0.00,,,0.00,0,Wunderground v.1.15,2013-05-14 05:19:00,
2013-05-14 00:21:00,58.5,40.9,29.85,SSW,204,5.0,11.0,52,0.00,,,0.00,0,Wunderground v.1.15,2013-05-14 05:21:00,
2013-05-14 00:23:00,58.5,40.9,29.85,SSE,159,5.0,11.0,52,0.00,,,0.00,0,Wunderground v.1.15,2013-05-14 05:23:00,
2013-05-14 00:26:00,58.5,40.9,29.85,SSE,151,5.0,11.0,52,0.00,,,0.00,0,Wunderground v.1.15,2013-05-14 05:26:00,
2013-05-14 00:27:00,58.5,40.9,29.85,South,175,5.0,11.0,52,0.00,,,0.00,0,Wunderground v.1.15,2013-05-14 05:27:00,
2013-05-14 00:29:00,58.6,41.0,29.85,SE,127,4.0,11.0,52,0.00,,,0.00,0,Wunderground v.1.15,2013-05-14 05:29:00,
2013-05-14 00:32:00,58.6,41.0,29.85,SSE,168,4.0,7.0,52,0.00,,,0.00,0,Wunderground v.1.15,2013-05-14 05:32:00,
2013-05-14 00:33:00,58.6,41.0,29.85,SSE,159,4.0,7.0,52,0.00,,,0.00,0,Wunderground v.1.15,2013-05-14 05:33:00,
2013-05-14 00:34:00,58.5,40.9,29.84,SSE,153,4.0,7.0,52,0.00,,,0.00,0,Wunderground v.1.15,2013-05-14 05:34:00,
2013-05-14 00:36:00,58.6,41.0,29.85,ESE,102,4.0,7.0,52,0.00,,,0.00,0,Wunderground v.1.15,2013-05-14 05:36:00,
2013-05-14 00:37:00,58.6,41.0,29.85,SSW,211,4.0,7.0,52,0.00,,,0.00,0,Wunderground v.1.15,2013-05-14 05:37:00,
2013-05-14 00:41:00,58.6,41.5,29.84,SSE,150,4.0,9.0,53,0.00,,,0.00,0,Wunderground v.1.15,2013-05-14 05:41:00,
2013-05-14 00:44:00,58.6,41.5,29.84,SSE,167,5.0,9.0,53,0.00,,,0.00,0,Wunderground v.1.15,2013-05-14 05:44:00,
2013-05-14 00:45:00,58.6,41.5,29.84,SSE,165,5.0,9.0,53,0.00,,,0.00,0,Wunderground v.1.15,2013-05-14 05:45:00,
2013-05-14 00:48:00,58.6,41.5,29.84,SSE,150,5.0,9.0,53,0.00,,,0.00,0,Wunderground v.1.15,2013-05-14 05:48:00,
2013-05-14 00:50:00,58.5,41.4,29.84,SE,140,4.0,4.0,53,0.00,,,0.00,0,Wunderground v.1.15,2013-05-14 05:50:00,
2013-05-14 00:51:00,58.5,41.4,29.84,SE,140,4.0,4.0,53,0.00,,,0.00,0,Wunderground v.1.15,2013-05-14 05:51:00,
2013-05-14 00:54:00,58.5,41.4,29.84,ESE,118,3.0,6.0,53,0.00,,,0.00,0,Wunderground v.1.15,2013-05-14 05:54:00,
2013-05-14 00:55:00,58.5,41.4,29.83,SE,145,3.0,6.0,53,0.00,,,0.00,0,Wunderground v.1.15,2013-05-14 05:55:00,
2013-05-14 00:56:00,58.5,41.9,29.84,SSE,164,3.0,6.0,54,0.00,,,0.00,0,Wunderground v.1.15,2013-05-14 05:56:00,
2013-05-14 00:57:00,58.5,41.9,29.83,South,189,3.0,6.0,54,0.00,,,0.00,0,Wunderground v.1.15,2013-05-14 05:57:00,
2013-05-14 00:59:00,58.5,41.9,29.83,South,169,3.0,7.0,54,0.00,,,0.00,0,Wunderground v.1.15,2013-05-14 05:59:00,
2013-05-14 01:01:00,58.5,41.9,29.83,SSE,156,4.0,7.0,54,0.00,,,0.00,0,Wunderground v.1.15,2013-05-14 06:01:00,
2013-05-14 01:02:00,58.4,41.8,29.83,SSE,163,4.0,7.0,54,0.00,,,0.00,0,Wunderground v.1.15,2013-05-14 06:02:00,
2013-05-14 01:06:00,58.4,41.8,29.83,South,182,3.0,7.0,54,0.00,,,0.00,0,Wunderground v.1.15,2013-05-14 06:06:00,
2013-05-14 01:07:00,58.4,41.8,29.83,SSE,148,4.0,7.0,54,0.00,,,0.00,0,Wunderground v.1.15,2013-05-14 06:07:00,
2013-05-14 01:08:00,58.4,41.8,29.83,South,182,3.0,7.0,54,0.00,,,0.00,0,Wunderground v.1.15,2013-05-14 06:08:00,
2013-05-14 01:12:00,58.4,41.8,29.82,SSE,168,3.0,4.0,54,0.00,,,0.00,0,Wunderground v.1.15,2013-05-14 06:12:00,
2013-05-14 01:13:00,58.4,41.8,29.82,SE,146,3.0,4.0,54,0.00,,,0.00,0,Wunderground v.1.15,2013-05-14 06:13:00,
2013-05-14 01:14:00,58.4,41.8,29.82,SE,146,3.0,4.0,54,0.00,,,0.00,0,Wunderground v.1.15,2013-05-14 06:14:00,
2013-05-14 01:16:00,58.4,42.3,29.82,South,172,3.0,5.0,55,0.00,,,0.00,0,Wunderground v.1.15,2013-05-14 06:16:00,
2013-05-14 01:18:00,58.3,42.2,29.82,SSE,157,3.0,5.0,55,0.00,,,0.00,0,Wunderground v.1.15,2013-05-14 06:18:00,
2013-05-14 01:19:00,58.4,42.3,29.82,SSW,201,3.0,5.0,55,0.00,,,0.00,0,Wunderground v.1.15,2013-05-14 06:19:00,
2013-05-14 01:22:00,58.3,42.2,29.82,South,184,4.0,6.0,55,0.00,,,0.00,0,Wunderground v.1.15,2013-05-14 06:22:00,
2013-05-14 01:24:00,58.4,42.3,29.82,SE,140,4.0,6.0,55,0.00,,,0.00,0,Wunderground v.1.15,2013-05-14 06:24:00,
2013-05-14 01:28:00,58.4,42.3,29.82,SSW,197,5.0,7.0,55,0.00,,,0.00,0,Wunderground v.1.15,2013-05-14 06:28:00,
2013-05-14 01:29:00,58.4,42.3,29.81,South,178,5.0,7.0,55,0.00,,,0.00,0,Wunderground v.1.15,2013-05-14 06:29:00,
2013-05-14 01:31:00,58.4,42.3,29.81,SE,128,5.0,7.0,55,0.00,,,0.00,0,Wunderground v.1.15,2013-05-14 06:31:00,
2013-05-14 01:32:00,58.4,42.3,29.81,ESE,116,6.0,7.0,55,0.00,,,0.00,0,Wunderground v.1.15,2013-05-14 06:32:00,
2013-05-14 01:33:00,58.4,42.3,29.81,SE,127,5.0,7.0,55,0.00,,,0.00,0,Wunderground v.1.15,2013-05-14 06:33:00,
2013-05-14 01:34:00,58.4,42.3,29.81,SE,127,5.0,7.0,55,0.00,,,0.00,0,Wunderground v.1.15,2013-05-14 06:34:00,
2013-05-14 01:38:00,58.3,42.2,29.81,South,169,4.0,7.0,55,0.00,,,0.00,0,Wunderground v.1.15,2013-05-14 06:38:00,
2013-05-14 01:40:00,58.3,42.2,29.80,South,174,3.0,3.0,55,0.00,,,0.00,0,Wunderground v.1.15,2013-05-14 06:40:00,
2013-05-14 01:41:00,58.2,42.1,29.80,SSE,165,3.0,3.0,55,0.00,,,0.00,0,Wunderground v.1.15,2013-05-14 06:41:00,
2013-05-14 01:43:00,58.2,42.6,29.80,South,172,3.0,9.0,56,0.00,,,0.00,0,Wunderground v.1.15,2013-05-14 06:43:00,
2013-05-14 01:44:00,58.2,42.6,29.80,SE,138,3.0,9.0,56,0.00,,,0.00,0,Wunderground v.1.15,2013-05-14 06:44:00,
2013-05-14 01:49:00,58.1,42.5,29.80,SSE,148,3.0,9.0,56,0.00,,,0.00,0,Wunderground v.1.15,2013-05-14 06:49:00,
2013-05-14 01:50:00,58.1,42.5,29.80,SE,136,3.0,3.0,56,0.00,,,0.00,0,Wunderground v.1.15,2013-05-14 06:50:00,
2013-05-14 01:51:00,58.1,42.5,29.80,SE,136,3.0,4.0,56,0.00,,,0.00,0,Wunderground v.1.15,2013-05-14 06:51:00,
2013-05-14 01:53:00,58.1,42.5,29.80,SSE,153,3.0,4.0,56,0.00,,,0.00,0,Wunderground v.1.15,2013-05-14 06:53:00,
2013-05-14 01:55:00,58.0,42.4,29.80,SSE,157,3.0,9.0,56,0.00,,,0.00,0,Wunderground v.1.15,2013-05-14 06:55:00,
2013-05-14 01:57:00,58.1,42.5,29.80,SE,138,3.0,9.0,56,0.00,,,0.00,0,Wunderground v.1.15,2013-05-14 06:57:00,
2013-05-14 01:58:00,58.1,42.5,29.80,SE,143,3.0,9.0,56,0.00,,,0.00,0,Wunderground v.1.15,2013-05-14 06:58:00,
2013-05-14 02:01:00,58.1,42.9,29.79,SE,144,3.0,5.0,57,0.00,,,0.00,0,Wunderground v.1.15,2013-05-14 07:01:00,
2013-05-14 02:03:00,58.0,42.8,29.79,South,171,4.0,5.0,57,0.00,,,0.00,0,Wunderground v.1.15,2013-05-14 07:03:00,
2013-05-14 02:06:00,58.0,42.8,29.79,SE,127,3.0,7.0,57,0.00,,,0.00,0,Wunderground v.1.15,2013-05-14 07:06:00,
2013-05-14 02:07:00,58.0,42.8,29.79,SE,146,3.0,7.0,57,0.00,,,0.00,0,Wunderground v.1.15,2013-05-14 07:07:00,
2013-05-14 02:08:00,58.0,42.8,29.79,SSE,154,3.0,7.0,57,0.00,,,0.00,0,Wunderground v.1.15,2013-05-14 07:08:00,
2013-05-14 02:09:00,57.9,42.8,29.79,SE,142,3.0,7.0,57,0.00,,,0.00,0,Wunderground v.1.15,2013-05-14 07:09:00,
2013-05-14 02:13:00,57.9,42.8,29.79,SSE,159,3.0,6.0,57,0.00,,,0.00,0,Wunderground v.1.15,2013-05-14 07:13:00,
2013-05-14 02:16:00,57.9,42.8,29.79,SE,146,4.0,7.0,57,0.00,,,0.00,0,Wunderground v.1.15,2013-05-14 07:16:00,
2013-05-14 02:18:00,57.9,42.8,29.79,SE,136,4.0,7.0,57,0.00,,,0.00,0,Wunderground v.1.15,2013-05-14 07:18:00,
2013-05-14 02:19:00,57.9,42.8,29.79,SE,136,4.0,7.0,57,0.00,,,0.00,0,Wunderground v.1.15,2013-05-14 07:19:00,
2013-05-14 02:21:00,57.9,42.8,29.79,SSE,163,4.0,4.0,57,0.00,,,0.00,0,Wunderground v.1.15,2013-05-14 07:21:00,
2013-05-14 02:24:00,57.9,43.2,29.79,South,175,3.0,4.0,58,0.00,,,0.00,0,Wunderground v.1.15,2013-05-14 07:24:00,
2013-05-14 02:26:00,57.9,43.2,29.79,SSW,192,3.0,4.0,58,0.00,,,0.00,0,Wunderground v.1.15,2013-05-14 07:26:00,
2013-05-14 02:28:00,57.9,43.2,29.79,South,176,2.0,4.0,58,0.00,,,0.00,0,Wunderground v.1.15,2013-05-14 07:28:00,
2013-05-14 02:29:00,57.9,43.2,29.79,SSE,165,2.0,4.0,58,0.00,,,0.00,0,Wunderground v.1.15,2013-05-14 07:29:00,
2013-05-14 02:30:00,57.8,43.1,29.79,SSE,163,2.0,2.0,58,0.00,,,0.00,0,Wunderground v.1.15,2013-05-14 07:30:00,
2013-05-14 02:33:00,57.9,43.2,29.79,SE,126,3.0,14.0,58,0.00,,,0.00,0,Wunderground v.1.15,2013-05-14 07:33:00,
2013-05-14 02:34:00,57.9,43.2,29.79,SSE,148,4.0,14.0,58,0.00,,,0.00,0,Wunderground v.1.15,2013-05-14 07:34:00,
2013-05-14 02:36:00,58.0,43.3,29.79,SE,127,4.0,14.0,58,0.00,,,0.00,0,Wunderground v.1.15,2013-05-14 07:36:00,
2013-05-14 02:39:00,58.0,43.3,29.79,SE,128,4.0,14.0,58,0.00,,,0.00,0,Wunderground v.1.15,2013-05-14 07:39:00,
2013-05-14 02:41:00,58.0,43.3,29.79,SSE,147,4.0,6.0,58,0.00,,,0.00,0,Wunderground v.1.15,2013-05-14 07:41:00,
2013-05-14 02:44:00,58.0,43.3,29.78,SE,145,3.0,6.0,58,0.00,,,0.00,0,Wunderground v.1.15,2013-05-14 07:44:00,
2013-05-14 02:46:00,58.0,43.3,29.79,SE,128,4.0,6.0,58,0.00,,,0.00,0,Wunderground v.1.15,2013-05-14 07:46:00,
2013-05-14 02:48:00,57.9,43.7,29.79,SSE,167,4.0,6.0,59,0.00,,,0.00,0,Wunderground v.1.15,2013-05-14 07:48:00,
2013-05-14 02:49:00,57.9,43.7,29.78,SSE,164,4.0,6.0,59,0.00,,,0.00,0,Wunderground v.1.15,2013-05-14 07:49:00,
2013-05-14 02:50:00,57.9,43.7,29.78,South,170,4.0,4.0,59,0.00,,,0.00,0,Wunderground v.1.15,2013-05-14 07:50:00,
2013-05-14 02:52:00,57.9,43.7,29.78,SSE,155,3.0,4.0,59,0.00,,,0.00,0,Wunderground v.1.15,2013-05-14 07:52:00,
2013-05-14 02:53:00,57.9,43.7,29.78,SSE,152,3.0,4.0,59,0.00,,,0.00,0,Wunderground v.1.15,2013-05-14 07:53:00,
2013-05-14 02:56:00,57.8,43.6,29.78,SE,144,3.0,6.0,59,0.00,,,0.00,0,Wunderground v.1.15,2013-05-14 07:56:00,
2013-05-14 02:58:00,57.8,43.6,29.78,SE,130,3.0,6.0,59,0.00,,,0.00,0,Wunderground v.1.15,2013-05-14 07:58:00,
2013-05-14 02:59:00,57.8,43.6,29.78,SE,143,3.0,6.0,59,0.00,,,0.00,0,Wunderground v.1.15,2013-05-14 07:59:00,
2013-05-14 03:02:00,57.8,43.6,29.78,SSE,165,3.0,4.0,59,0.00,,,0.00,0,Wunderground v.1.15,2013-05-14 08:02:00,
2013-05-14 03:03:00,57.8,44.0,29.78,SSE,159,3.0,4.0,60,0.00,,,0.00,0,Wunderground v.1.15,2013-05-14 08:03:00,
2013-05-14 03:04:00,57.8,44.0,29.78,SSE,159,3.0,4.0,60,0.00,,,0.00,0,Wunderground v.1.15,2013-05-14 08:04:00,
2013-05-14 03:06:00,57.7,43.9,29.78,SSE,159,3.0,5.0,60,0.00,,,0.00,0,Wunderground v.1.15,2013-05-14 08:06:00,
2013-05-14 03:09:00,57.7,43.9,29.78,SE,144,3.0,5.0,60,0.00,,,0.00,0,Wunderground v.1.15,2013-05-14 08:09:00,
2013-05-14 03:10:00,57.7,43.9,29.77,SSE,155,3.0,5.0,60,0.00,,,0.00,0,Wunderground v.1.15,2013-05-14 08:10:00,
2013-05-14 03:11:00,57.7,43.9,29.77,SSE,148,4.0,5.0,60,0.00,,,0.00,0,Wunderground v.1.15,2013-05-14 08:11:00,
2013-05-14 03:15:00,57.7,43.9,29.77,SSE,161,5.0,10.0,60,0.00,,,0.00,0,Wunderground v.1.15,2013-05-14 08:15:00,
2013-05-14 03:16:00,57.7,43.9,29.77,SSE,161,5.0,10.0,60,0.00,,,0.00,0,Wunderground v.1.15,2013-05-14 08:16:00,
2013-05-14 03:18:00,57.7,43.9,29.77,South,169,5.0,10.0,60,0.00,,,0.00,0,Wunderground v.1.15,2013-05-14 08:18:00,
2013-05-14 03:20:00,57.7,43.9,29.77,SE,138,5.0,6.0,60,0.00,,,0.00,0,Wunderground v.1.15,2013-05-14 08:20:00,
2013-05-14 03:21:00,57.6,43.8,29.77,SE,142,5.0,6.0,60,0.00,,,0.00,0,Wunderground v.1.15,2013-05-14 08:21:00,
2013-05-14 03:22:00,57.6,43.8,29.77,SSE,157,4.0,6.0,60,0.00,,,0.00,0,Wunderground v.1.15,2013-05-14 08:22:00,
2013-05-14 03:23:00,57.6,44.2,29.77,SSE,157,4.0,6.0,61,0.00,,,0.00,0,Wunderground v.1.15,2013-05-14 08:23:00,
2013-05-14 03:27:00,57.5,44.1,29.77,SSE,163,4.0,7.0,61,0.00,,,0.00,0,Wunderground v.1.15,2013-05-14 08:27:00,
2013-05-14 03:29:00,57.5,44.1,29.77,SSE,160,4.0,7.0,61,0.00,,,0.00,0,Wunderground v.1.15,2013-05-14 08:29:00,
2013-05-14 03:31:00,57.5,44.1,29.77,SSE,147,4.0,4.0,61,0.00,,,0.00,0,Wunderground v.1.15,2013-05-14 08:31:00,
2013-05-14 03:32:00,57.5,44.1,29.77,SE,146,4.0,4.0,61,0.00,,,0.00,0,Wunderground v.1.15,2013-05-14 08:32:00,
2013-05-14 03:33:00,57.5,44.1,29.77,South,170,3.0,4.0,61,0.00,,,0.00,0,Wunderground v.1.15,2013-05-14 08:33:00,
2013-05-14 03:34:00,57.5,44.1,29.77,South,169,3.0,4.0,61,0.00,,,0.00,0,Wunderground v.1.15,2013-05-14 08:34:00,
2013-05-14 03:37:00,57.5,44.1,29.77,SSE,163,3.0,4.0,61,0.00,,,0.00,0,Wunderground v.1.15,2013-05-14 08:37:00,
2013-05-14 03:38:00,57.5,44.1,29.77,SSE,163,3.0,4.0,61,0.00,,,0.00,0,Wunderground v.1.15,2013-05-14 08:38:00,
2013-05-14 03:43:00,57.5,44.1,29.77,SSE,162,2.0,2.0,61,0.00,,,0.00,0,Wunderground v.1.15,2013-05-14 08:43:00,
2013-05-14 03:44:00,57.5,44.6,29.77,SSE,162,2.0,2.0,62,0.00,,,0.00,0,Wunderground v.1.15,2013-05-14 08:44:00,
2013-05-14 03:48:00,57.4,44.5,29.77,SSE,162,1.0,2.0,62,0.00,,,0.00,0,Wunderground v.1.15,2013-05-14 08:48:00,
2013-05-14 03:49:00,57.4,44.5,29.77,SSE,162,1.0,2.0,62,0.00,,,0.00,0,Wunderground v.1.15,2013-05-14 08:49:00,
2013-05-14 03:50:00,57.4,44.5,29.77,SSE,162,1.0,2.0,62,0.00,,,0.00,0,Wunderground v.1.15,2013-05-14 08:50:00,
2013-05-14 03:51:00,57.3,44.4,29.77,SSE,162,1.0,2.0,62,0.00,,,0.00,0,Wunderground v.1.15,2013-05-14 08:51:00,
2013-05-14 03:52:00,57.3,44.4,29.77,SSE,162,2.0,4.0,62,0.00,,,0.00,0,Wunderground v.1.15,2013-05-14 08:52:00,
2013-05-14 03:53:00,57.3,44.4,29.77,SSE,162,2.0,4.0,62,0.00,,,0.00,0,Wunderground v.1.15,2013-05-14 08:53:00,
2013-05-14 03:54:00,57.3,44.4,29.77,SSE,162,2.0,4.0,62,0.00,,,0.00,0,Wunderground v.1.15,2013-05-14 08:54:00,
2013-05-14 03:58:00,57.2,44.3,29.77,SSE,162,2.0,5.0,62,0.00,,,0.00,0,Wunderground v.1.15,2013-05-14 08:58:00,
2013-05-14 04:00:00,57.2,44.3,29.77,SSE,162,2.0,4.0,62,0.00,,,0.00,0,Wunderground v.1.15,2013-05-14 09:00:00,
2013-05-14 04:02:00,57.1,44.2,29.77,SSE,162,2.0,4.0,62,0.00,,,0.00,0,Wunderground v.1.15,2013-05-14 09:02:00,
2013-05-14 04:04:00,57.1,44.2,29.77,SSE,162,2.0,4.0,62,0.00,,,0.00,0,Wunderground v.1.15,2013-05-14 09:04:00,
2013-05-14 04:05:00,57.1,44.6,29.77,SSE,162,2.0,4.0,63,0.00,,,0.00,0,Wunderground v.1.15,2013-05-14 09:05:00,
2013-05-14 04:06:00,57.0,44.5,29.77,SSE,162,2.0,4.0,63,0.00,,,0.00,0,Wunderground v.1.15,2013-05-14 09:06:00,
2013-05-14 04:08:00,57.0,44.5,29.77,SSE,162,2.0,4.0,63,0.00,,,0.00,0,Wunderground v.1.15,2013-05-14 09:08:00,
2013-05-14 04:11:00,56.9,44.4,29.77,SSE,162,1.0,1.0,63,0.00,,,0.00,0,Wunderground v.1.15,2013-05-14 09:11:00,
2013-05-14 04:13:00,56.9,44.4,29.76,SSE,162,1.0,1.0,63,0.00,,,0.00,0,Wunderground v.1.15,2013-05-14 09:13:00,
2013-05-14 04:17:00,56.7,44.2,29.76,SSE,162,1.0,2.0,63,0.00,,,0.00,0,Wunderground v.1.15,2013-05-14 09:17:00,
2013-05-14 04:19:00,56.7,44.7,29.76,SSE,162,1.0,2.0,64,0.00,,,0.00,0,Wunderground v.1.15,2013-05-14 09:19:00,
2013-05-14 04:21:00,56.6,44.6,29.76,SSE,162,1.0,1.0,64,0.00,,,0.00,0,Wunderground v.1.15,2013-05-14 09:21:00,
2013-05-14 04:23:00,56.5,44.5,29.76,SSE,162,1.0,1.0,64,0.00,,,0.00,0,Wunderground v.1.15,2013-05-14 09:23:00,
2013-05-14 04:27:00,56.4,44.4,29.76,SSE,162,0.0,1.0,64,0.00,,,0.00,0,Wunderground v.1.15,2013-05-14 09:27:00,
2013-05-14 04:29:00,56.3,44.3,29.76,SSE,162,0.0,1.0,64,0.00,,,0.00,0,Wunderground v.1.15,2013-05-14 09:29:00,
2013-05-14 04:30:00,56.3,44.3,29.76,SSE,162,0.0,0.0,64,0.00,,,0.00,0,Wunderground v.1.15,2013-05-14 09:30:00,
2013-05-14 04:32:00,56.2,44.6,29.76,SSE,162,0.0,0.0,65,0.00,,,0.00,0,Wunderground v.1.15,2013-05-14 09:32:00,
2013-05-14 04:34:00,56.2,44.6,29.76,SSE,162,0.0,0.0,65,0.00,,,0.00,0,Wunderground v.1.15,2013-05-14 09:34:00,
2013-05-14 04:37:00,55.9,44.3,29.76,SSE,162,0.0,0.0,65,0.00,,,0.00,0,Wunderground v.1.15,2013-05-14 09:37:00,
2013-05-14 04:38:00,55.8,44.2,29.76,SSE,162,0.0,0.0,65,0.00,,,0.00,0,Wunderground v.1.15,2013-05-14 09:38:00,
2013-05-14 04:41:00,55.6,44.4,29.76,SSE,162,0.0,0.0,66,0.00,,,0.00,0,Wunderground v.1.15,2013-05-14 09:41:00,
2013-05-14 04:42:00,55.5,44.3,29.76,SSE,162,0.0,0.0,66,0.00,,,0.00,0,Wunderground v.1.15,2013-05-14 09:42:00,
2013-05-14 04:43:00,55.3,44.1,29.76,SSE,162,0.0,0.0,66,0.00,,,0.00,0,Wunderground v.1.15,2013-05-14 09:43:00,
2013-05-14 04:45:00,55.3,44.1,29.76,SSE,162,0.0,0.0,66,0.00,,,0.00,0,Wunderground v.1.15,2013-05-14 09:45:00,
2013-05-14 04:46:00,55.2,44.0,29.76,SSE,162,0.0,0.0,66,0.00,,,0.00,0,Wunderground v.1.15,2013-05-14 09:46:00,
2013-05-14 04:47:00,55.1,44.3,29.76,SSE,162,0.0,0.0,67,0.00,,,0.00,0,Wunderground v.1.15,2013-05-14 09:47:00,
2013-05-14 04:48:00,55.1,44.3,29.76,SSE,162,0.0,0.0,67,0.00,,,0.00,0,Wunderground v.1.15,2013-05-14 09:48:00,
2013-05-14 04:50:00,54.9,44.1,29.76,SSE,162,0.0,0.0,67,0.00,,,0.00,0,Wunderground v.1.15,2013-05-14 09:50:00,
2013-05-14 04:51:00,54.8,44.0,29.76,SSE,162,0.0,0.0,67,0.00,,,0.00,0,Wunderground v.1.15,2013-05-14 09:51:00,
2013-05-14 04:52:00,54.7,44.0,29.76,SSE,162,0.0,0.0,67,0.00,,,0.00,0,Wunderground v.1.15,2013-05-14 09:52:00,
2013-05-14 04:55:00,54.5,44.2,29.76,SSE,162,0.0,0.0,68,0.00,,,0.00,0,Wunderground v.1.15,2013-05-14 09:55:00,
2013-05-14 04:57:00,54.4,44.1,29.76,SSE,162,0.0,0.0,68,0.00,,,0.00,0,Wunderground v.1.15,2013-05-14 09:57:00,
2013-05-14 05:00:00,54.2,43.9,29.76,SSE,162,0.0,0.0,68,0.00,,,0.00,0,Wunderground v.1.15,2013-05-14 10:00:00,
2013-05-14 05:01:00,54.2,43.9,29.76,SSE,162,0.0,0.0,68,0.00,,,0.00,0,Wunderground v.1.15,2013-05-14 10:01:00,
2013-05-14 05:03:00,54.1,44.2,29.76,SSE,162,0.0,0.0,69,0.00,,,0.00,0,Wunderground v.1.15,2013-05-14 10:03:00,
2013-05-14 05:04:00,54.0,44.1,29.76,SSE,162,0.0,0.0,69,0.00,,,0.00,0,Wunderground v.1.15,2013-05-14 10:04:00,
2013-05-14 05:06:00,53.9,44.0,29.76,SSE,162,0.0,0.0,69,0.00,,,0.00,0,Wunderground v.1.15,2013-05-14 10:06:00,
2013-05-14 05:10:00,53.7,43.8,29.76,SSE,162,0.0,0.0,69,0.00,,,0.00,0,Wunderground v.1.15,2013-05-14 10:10:00,
2013-05-14 05:11:00,53.6,44.0,29.76,SSE,162,0.0,0.0,70,0.00,,,0.00,0,Wunderground v.1.15,2013-05-14 10:11:00,
2013-05-14 05:13:00,53.4,43.9,29.76,SSE,162,0.0,0.0,70,0.00,,,0.00,0,Wunderground v.1.15,2013-05-14 10:13:00,
2013-05-14 05:15:00,53.3,43.8,29.76,SSE,162,0.0,0.0,70,0.00,,,0.00,0,Wunderground v.1.15,2013-05-14 10:15:00,
2013-05-14 05:17:00,53.2,43.7,29.76,SSE,162,0.0,0.0,70,0.00,,,0.00,0,Wunderground v.1.15,2013-05-14 10:17:00,
2013-05-14 05:19:00,53.1,43.6,29.76,SSE,162,0.0,0.0,70,0.00,,,0.00,0,Wunderground v.1.15,2013-05-14 10:19:00,
2013-05-14 05:20:00,53.0,43.5,29.76,SSE,162,0.0,0.0,70,0.00,,,0.00,0,Wunderground v.1.15,2013-05-14 10:20:00,
2013-05-14 05:24:00,52.8,43.7,29.76,SSE,162,0.0,0.0,71,0.00,,,0.00,0,Wunderground v.1.15,2013-05-14 10:24:00,
2013-05-14 05:26:00,52.7,43.6,29.76,SSE,162,0.0,0.0,71,0.00,,,0.00,0,Wunderground v.1.15,2013-05-14 10:26:00,
2013-05-14 05:27:00,52.7,43.6,29.76,SSE,162,0.0,0.0,71,0.00,,,0.00,0,Wunderground v.1.15,2013-05-14 10:27:00,
2013-05-14 05:30:00,52.5,43.4,29.76,SSE,162,0.0,0.0,71,0.00,,,0.00,0,Wunderground v.1.15,2013-05-14 10:30:00,
2013-05-14 05:33:00,52.2,43.4,29.76,SSE,162,0.0,0.0,72,0.00,,,0.00,0,Wunderground v.1.15,2013-05-14 10:33:00,
2013-05-14 05:34:00,52.1,43.3,29.76,SSE,162,0.0,0.0,72,0.00,,,0.00,0,Wunderground v.1.15,2013-05-14 10:34:00,
2013-05-14 05:36:00,51.9,43.5,29.76,SSE,162,0.0,0.0,73,0.00,,,0.00,0,Wunderground v.1.15,2013-05-14 10:36:00,
2013-05-14 05:37:00,51.8,43.4,29.76,SSE,162,0.0,0.0,73,0.00,,,0.00,0,Wunderground v.1.15,2013-05-14 10:37:00,
2013-05-14 05:38:00,51.7,43.3,29.76,SSE,162,0.0,0.0,73,0.00,,,0.00,0,Wunderground v.1.15,2013-05-14 10:38:00,
2013-05-14 05:40:00,51.6,43.2,29.76,SSE,162,0.0,0.0,73,0.00,,,0.00,5,Wunderground v.1.15,2013-05-14 10:40:00,
2013-05-14 05:43:00,51.3,43.3,29.76,SSE,162,0.0,0.0,74,0.00,,,0.00,5,Wunderground v.1.15,2013-05-14 10:43:00,
2013-05-14 05:44:00,51.3,43.3,29.76,SSE,162,0.0,0.0,74,0.00,,,0.00,7,Wunderground v.1.15,2013-05-14 10:44:00,
2013-05-14 05:46:00,51.1,43.1,29.76,SSE,162,0.0,0.0,74,0.00,,,0.00,7,Wunderground v.1.15,2013-05-14 10:46:00,
2013-05-14 05:48:00,50.9,42.9,29.76,SSE,162,0.0,0.0,74,0.00,,,0.00,9,Wunderground v.1.15,2013-05-14 10:48:00,
2013-05-14 05:49:00,50.9,43.3,29.76,SSE,162,0.0,0.0,75,0.00,,,0.00,9,Wunderground v.1.15,2013-05-14 10:49:00,
2013-05-14 05:51:00,50.7,43.1,29.76,SSE,162,0.0,0.0,75,0.00,,,0.00,11,Wunderground v.1.15,2013-05-14 10:51:00,
2013-05-14 05:53:00,50.6,43.0,29.76,SSE,162,0.0,0.0,75,0.00,,,0.00,12,Wunderground v.1.15,2013-05-14 10:53:00,
2013-05-14 05:55:00,50.5,42.9,29.77,SSE,162,0.0,0.0,75,0.00,,,0.00,12,Wunderground v.1.15,2013-05-14 10:55:00,
2013-05-14 05:56:00,50.4,42.8,29.77,SSE,162,0.0,0.0,75,0.00,,,0.00,14,Wunderground v.1.15,2013-05-14 10:56:00,
2013-05-14 05:58:00,50.3,43.0,29.77,SSE,162,0.0,0.0,76,0.00,,,0.00,14,Wunderground v.1.15,2013-05-14 10:58:00,
2013-05-14 05:59:00,50.2,42.9,29.76,SSE,162,0.0,0.0,76,0.00,,,0.00,14,Wunderground v.1.15,2013-05-14 10:59:00,
2013-05-14 06:03:00,50.0,42.7,29.76,SSE,162,0.0,0.0,76,0.00,,,0.00,18,Wunderground v.1.15,2013-05-14 11:03:00,
2013-05-14 06:04:00,49.9,42.6,29.76,SSE,162,0.0,0.0,76,0.00,,,0.00,18,Wunderground v.1.15,2013-05-14 11:04:00,
2013-05-14 06:05:00,49.8,42.9,29.76,SSE,162,0.0,0.0,77,0.00,,,0.00,18,Wunderground v.1.15,2013-05-14 11:05:00,
2013-05-14 06:06:00,49.8,42.9,29.77,SSE,162,0.0,0.0,77,0.00,,,0.00,19,Wunderground v.1.15,2013-05-14 11:06:00,
2013-05-14 06:09:00,49.6,42.7,29.76,SSE,162,0.0,1.0,77,0.00,,,0.00,21,Wunderground v.1.15,2013-05-14 11:09:00,
2013-05-14 06:10:00,49.5,42.9,29.76,SSE,162,0.0,0.0,78,0.00,,,0.00,21,Wunderground v.1.15,2013-05-14 11:10:00,
2013-05-14 06:11:00,49.4,42.8,29.76,SSE,162,0.0,0.0,78,0.00,,,0.00,21,Wunderground v.1.15,2013-05-14 11:11:00,
2013-05-14 06:12:00,49.4,42.8,29.76,SSE,162,0.0,0.0,78,0.00,,,0.00,21,Wunderground v.1.15,2013-05-14 11:12:00,
2013-05-14 06:15:00,49.3,42.7,29.76,SSE,162,0.0,0.0,78,0.00,,,0.00,23,Wunderground v.1.15,2013-05-14 11:15:00,
2013-05-14 06:16:00,49.2,42.6,29.76,SSE,162,0.0,0.0,78,0.00,,,0.00,23,Wunderground v.1.15,2013-05-14 11:16:00,
2013-05-14 06:18:00,49.2,42.6,29.76,SSE,162,0.0,0.0,78,0.00,,,0.00,25,Wunderground v.1.15,2013-05-14 11:18:00,
2013-05-14 06:19:00,49.1,42.5,29.76,SSE,162,0.0,0.0,78,0.00,,,0.00,25,Wunderground v.1.15,2013-05-14 11:19:00,
2013-05-14 06:20:00,49.1,42.9,29.77,SSE,162,0.0,0.0,79,0.00,,,0.00,26,Wunderground v.1.15,2013-05-14 11:20:00,
2013-05-14 06:24:00,49.0,42.8,29.77,SSE,162,0.0,0.0,79,0.00,,,0.00,33,Wunderground v.1.15,2013-05-14 11:24:00,
2013-05-14 06:26:00,49.0,42.8,29.77,SSE,162,0.0,1.0,79,0.00,,,0.00,46,Wunderground v.1.15,2013-05-14 11:26:00,
2013-05-14 06:27:00,49.0,42.8,29.77,SSE,162,0.0,1.0,79,0.00,,,0.00,54,Wunderground v.1.15,2013-05-14 11:27:00,
2013-05-14 06:29:00,49.0,43.1,29.77,SSE,162,0.0,1.0,80,0.00,,,0.00,69,Wunderground v.1.15,2013-05-14 11:29:00,
2013-05-14 06:31:00,49.0,43.1,29.76,SSE,162,0.0,0.0,80,0.00,,,0.00,81,Wunderground v.1.15,2013-05-14 11:31:00,
2013-05-14 06:33:00,49.0,43.1,29.76,SSE,162,0.0,0.0,80,0.00,,,0.00,86,Wunderground v.1.15,2013-05-14 11:33:00,
2013-05-14 06:34:00,49.0,43.1,29.76,SSE,162,0.0,0.0,80,0.00,,,0.00,88,Wunderground v.1.15,2013-05-14 11:34:00,
2013-05-14 06:36:00,49.0,43.1,29.76,SSE,162,0.0,0.0,80,0.00,,,0.00,97,Wunderground v.1.15,2013-05-14 11:36:00,
2013-05-14 06:38:00,49.1,43.5,29.76,SSE,162,0.0,0.0,81,0.00,,,0.00,102,Wunderground v.1.15,2013-05-14 11:38:00,
2013-05-14 06:39:00,49.1,43.5,29.77,SSE,162,0.0,0.0,81,0.00,,,0.00,105,Wunderground v.1.15,2013-05-14 11:39:00,
2013-05-14 06:41:00,49.2,43.6,29.77,SSE,162,0.0,0.0,81,0.00,,,0.00,111,Wunderground v.1.15,2013-05-14 11:41:00,
2013-05-14 06:42:00,49.2,43.6,29.77,SSE,162,0.0,0.0,81,0.00,,,0.00,113,Wunderground v.1.15,2013-05-14 11:42:00,
2013-05-14 06:46:00,49.4,43.8,29.76,SSE,162,0.0,0.0,81,0.00,,,0.00,127,Wunderground v.1.15,2013-05-14 11:46:00,
2013-05-14 06:47:00,49.5,43.9,29.76,SSE,162,0.0,0.0,81,0.00,,,0.00,134,Wunderground v.1.15,2013-05-14 11:47:00,
2013-05-14 06:50:00,49.7,44.1,29.76,SSE,162,0.0,0.0,81,0.00,,,0.00,142,Wunderground v.1.15,2013-05-14 11:50:00,
2013-05-14 06:51:00,49.8,44.2,29.76,SSE,162,0.0,0.0,81,0.00,,,0.00,146,Wunderground v.1.15,2013-05-14 11:51:00,
2013-05-14 06:53:00,49.9,44.3,29.76,SSE,162,0.0,0.0,81,0.00,,,0.00,155,Wunderground v.1.15,2013-05-14 11:53:00,
2013-05-14 06:57:00,50.1,44.5,29.76,SSE,162,0.0,0.0,81,0.00,,,0.00,167,Wunderground v.1.15,2013-05-14 11:57:00,
2013-05-14 06:58:00,50.2,44.6,29.76,SSE,162,0.0,0.0,81,0.00,,,0.00,174,Wunderground v.1.15,2013-05-14 11:58:00,
2013-05-14 06:59:00,50.2,44.6,29.76,SSE,162,0.0,0.0,81,0.00,,,0.00,176,Wunderground v.1.15,2013-05-14 11:59:00,
2013-05-14 07:01:00,50.3,44.7,29.76,SSE,162,0.0,0.0,81,0.00,,,0.00,183,Wunderground v.1.15,2013-05-14 12:01:00,
2013-05-14 07:03:00,50.5,44.9,29.76,SSE,162,0.0,0.0,81,0.00,,,0.00,192,Wunderground v.1.15,2013-05-14 12:03:00,
2013-05-14 07:04:00,50.6,45.0,29.77,SSE,162,0.0,0.0,81,0.00,,,0.00,192,Wunderground v.1.15,2013-05-14 12:04:00,
2013-05-14 07:05:00,50.6,45.0,29.76,SSE,162,0.0,0.0,81,0.00,,,0.00,197,Wunderground v.1.15,2013-05-14 12:05:00,
2013-05-14 07:09:00,51.0,45.4,29.76,SSE,162,0.0,0.0,81,0.00,,,0.00,209,Wunderground v.1.15,2013-05-14 12:09:00,
2013-05-14 07:11:00,51.1,45.5,29.76,SSE,162,0.0,1.0,81,0.00,,,0.00,213,Wunderground v.1.15,2013-05-14 12:11:00,
2013-05-14 07:12:00,51.3,45.7,29.76,SSE,162,0.0,1.0,81,0.00,,,0.00,218,Wunderground v.1.15,2013-05-14 12:12:00,
2013-05-14 07:17:00,51.7,45.7,29.76,SSE,162,0.0,1.0,80,0.00,,,0.00,234,Wunderground v.1.15,2013-05-14 12:17:00,
2013-05-14 07:18:00,51.9,45.9,29.76,SSE,162,0.0,1.0,80,0.00,,,0.00,237,Wunderground v.1.15,2013-05-14 12:18:00,
2013-05-14 07:19:00,52.0,46.0,29.76,SSE,162,0.0,1.0,80,0.00,,,0.00,241,Wunderground v.1.15,2013-05-14 12:19:00,
2013-05-14 07:24:00,52.6,46.6,29.76,SSE,162,0.0,0.0,80,0.00,,,0.00,255,Wunderground v.1.15,2013-05-14 12:24:00,
2013-05-14 07:27:00,53.0,46.7,29.76,SSE,162,0.0,0.0,79,0.00,,,0.00,264,Wunderground v.1.15,2013-05-14 12:27:00,
2013-05-14 07:29:00,53.4,47.4,29.76,SSE,162,0.0,0.0,80,0.00,,,0.00,272,Wunderground v.1.15,2013-05-14 12:29:00,
2013-05-14 07:31:00,53.7,47.3,29.76,SSE,162,0.0,0.0,79,0.00,,,0.00,278,Wunderground v.1.15,2013-05-14 12:31:00,
2013-05-14 07:33:00,54.2,47.8,29.76,SSE,162,0.0,0.0,79,0.00,,,0.00,285,Wunderground v.1.15,2013-05-14 12:33:00,
2013-05-14 07:34:00,54.3,47.9,29.76,SSE,162,0.0,0.0,79,0.00,,,0.00,285,Wunderground v.1.15,2013-05-14 12:34:00,
2013-05-14 07:39:00,55.6,48.5,29.76,SSE,162,0.0,0.0,77,0.00,,,0.00,304,Wunderground v.1.15,2013-05-14 12:39:00,
2013-05-14 07:42:00,56.4,48.9,29.76,SSE,162,0.0,0.0,76,0.00,,,0.00,311,Wunderground v.1.15,2013-05-14 12:42:00,
2013-05-14 07:44:00,56.9,49.1,29.76,SSE,162,0.0,0.0,75,0.00,,,0.00,316,Wunderground v.1.15,2013-05-14 12:44:00,
2013-05-14 07:45:00,57.0,48.8,29.76,SSE,162,0.0,0.0,74,0.00,,,0.00,320,Wunderground v.1.15,2013-05-14 12:45:00,
2013-05-14 07:47:00,57.4,49.2,29.77,SSE,162,0.0,0.0,74,0.00,,,0.00,329,Wunderground v.1.15,2013-05-14 12:47:00,
2013-05-14 07:49:00,58.0,50.1,29.76,SSE,162,0.0,0.0,75,0.00,,,0.00,332,Wunderground v.1.15,2013-05-14 12:49:00,
2013-05-14 07:50:00,58.2,50.0,29.76,SSE,162,0.0,0.0,74,0.00,,,0.00,336,Wunderground v.1.15,2013-05-14 12:50:00,
2013-05-14 07:52:00,58.5,49.9,29.76,SSE,162,0.0,0.0,73,0.00,,,0.00,345,Wunderground v.1.15,2013-05-14 12:52:00,
2013-05-14 07:53:00,58.8,50.2,29.76,SSE,162,0.0,0.0,73,0.00,,,0.00,348,Wunderground v.1.15,2013-05-14 12:53:00,
2013-05-14 07:55:00,59.2,50.5,29.76,SSE,162,0.0,0.0,73,0.00,,,0.00,352,Wunderground v.1.15,2013-05-14 12:55:00,
2013-05-14 07:58:00,60.0,50.6,29.76,SSE,162,0.0,0.0,71,0.00,,,0.00,364,Wunderground v.1.15,2013-05-14 12:58:00,
2013-05-14 08:01:00,60.7,50.9,29.76,SSE,162,0.0,0.0,70,0.00,,,0.00,373,Wunderground v.1.15,2013-05-14 13:01:00,
2013-05-14 08:02:00,61.0,51.1,29.76,SSE,162,0.0,0.0,70,0.00,,,0.00,376,Wunderground v.1.15,2013-05-14 13:02:00,
2013-05-14 08:04:00,61.4,51.1,29.76,SSE,162,0.0,0.0,69,0.00,,,0.00,385,Wunderground v.1.15,2013-05-14 13:04:00,
2013-05-14 08:07:00,62.0,51.3,29.75,SSE,162,0.0,0.0,68,0.00,,,0.00,394,Wunderground v.1.15,2013-05-14 13:07:00,
2013-05-14 08:08:00,62.2,51.5,29.75,SSE,162,0.0,0.0,68,0.00,,,0.00,396,Wunderground v.1.15,2013-05-14 13:08:00,
2013-05-14 08:09:00,62.3,51.2,29.75,SSE,162,0.0,0.0,67,0.00,,,0.00,401,Wunderground v.1.15,2013-05-14 13:09:00,
2013-05-14 08:12:00,62.8,51.7,29.75,SSE,162,0.0,1.0,67,0.00,,,0.00,410,Wunderground v.1.15,2013-05-14 13:12:00,
2013-05-14 08:13:00,63.0,51.9,29.75,East,86,0.0,1.0,67,0.00,,,0.00,411,Wunderground v.1.15,2013-05-14 13:13:00,
2013-05-14 08:15:00,63.3,51.7,29.75,East,92,1.0,1.0,66,0.00,,,0.00,417,Wunderground v.1.15,2013-05-14 13:15:00,
2013-05-14 08:18:00,63.8,51.8,29.75,SE,145,1.0,5.0,65,0.00,,,0.00,427,Wunderground v.1.15,2013-05-14 13:18:00,
2013-05-14 08:19:00,63.8,51.8,29.75,SE,140,1.0,6.0,65,0.00,,,0.00,431,Wunderground v.1.15,2013-05-14 13:19:00,
2013-05-14 08:20:00,63.9,51.9,29.75,SSE,148,1.0,4.0,65,0.00,,,0.00,432,Wunderground v.1.15,2013-05-14 13:20:00,
2013-05-14 08:22:00,63.9,51.5,29.75,SE,146,2.0,4.0,64,0.00,,,0.00,439,Wunderground v.1.15,2013-05-14 13:22:00,
2013-05-14 08:23:00,64.0,51.6,29.75,SE,146,2.0,4.0,64,0.00,,,0.00,443,Wunderground v.1.15,2013-05-14 13:23:00,
2013-05-14 08:26:00,64.3,52.3,29.75,SE,146,2.0,4.0,65,0.00,,,0.00,450,Wunderground v.1.15,2013-05-14 13:26:00,
2013-05-14 08:28:00,64.7,52.7,29.75,SE,146,1.0,4.0,65,0.00,,,0.00,459,Wunderground v.1.15,2013-05-14 13:28:00,
2013-05-14 08:29:00,64.8,52.3,29.75,SE,146,1.0,4.0,64,0.00,,,0.00,462,Wunderground v.1.15,2013-05-14 13:29:00,
2013-05-14 08:31:00,65.1,52.6,29.75,SE,146,0.0,1.0,64,0.00,,,0.00,466,Wunderground v.1.15,2013-05-14 13:31:00,
2013-05-14 08:35:00,65.7,53.2,29.75,SE,146,0.0,2.0,64,0.00,,,0.00,482,Wunderground v.1.15,2013-05-14 13:35:00,
2013-05-14 08:36:00,65.9,52.5,29.75,SE,146,0.0,2.0,62,0.00,,,0.00,483,Wunderground v.1.15,2013-05-14 13:36:00,
2013-05-14 08:37:00,65.9,52.5,29.75,SE,146,1.0,2.0,62,0.00,,,0.00,485,Wunderground v.1.15,2013-05-14 13:37:00,
2013-05-14 08:42:00,66.6,53.2,29.75,SE,146,1.0,1.0,62,0.00,,,0.00,501,Wunderground v.1.15,2013-05-14 13:42:00,
2013-05-14 08:43:00,66.9,53.5,29.75,SE,146,1.0,1.0,62,0.00,,,0.00,504,Wunderground v.1.15,2013-05-14 13:43:00,
2013-05-14 08:45:00,67.2,52.8,29.75,SE,146,1.0,1.0,60,0.00,,,0.00,512,Wunderground v.1.15,2013-05-14 13:45:00,
2013-05-14 08:48:00,67.5,52.7,29.75,SE,146,0.0,1.0,59,0.00,,,0.00,520,Wunderground v.1.15,2013-05-14 13:48:00,
2013-05-14 08:50:00,67.7,53.3,29.75,SE,146,0.0,0.0,60,0.00,,,0.00,526,Wunderground v.1.15,2013-05-14 13:50:00,
2013-05-14 08:51:00,67.9,53.5,29.75,SE,146,0.0,0.0,60,0.00,,,0.00,527,Wunderground v.1.15,2013-05-14 13:51:00,
2013-05-14 08:54:00,68.1,53.2,29.75,SE,146,0.0,1.0,59,0.00,,,0.00,536,Wunderground v.1.15,2013-05-14 13:54:00,
2013-05-14 08:56:00,68.3,53.4,29.75,SE,146,0.0,2.0,59,0.00,,,0.00,545,Wunderground v.1.15,2013-05-14 13:56:00,
2013-05-14 08:57:00,68.3,52.9,29.75,SE,146,1.0,2.0,58,0.00,,,0.00,547,Wunderground v.1.15,2013-05-14 13:57:00,
2013-05-14 09:00:00,68.4,53.5,29.75,SE,146,1.0,1.0,59,0.00,,,0.00,554,Wunderground v.1.15,2013-05-14 14:00:00,
2013-05-14 09:02:00,68.6,53.7,29.74,SE,146,1.0,1.0,59,0.00,,,0.00,561,Wunderground v.1.15,2013-05-14 14:02:00,
2013-05-14 09:03:00,68.7,53.3,29.74,SE,146,0.0,1.0,58,0.00,,,0.00,563,Wunderground v.1.15,2013-05-14 14:03:00,
2013-05-14 09:06:00,69.2,53.3,29.74,SE,146,0.0,2.0,57,0.00,,,0.00,570,Wunderground v.1.15,2013-05-14 14:06:00,
2013-05-14 09:08:00,69.4,53.5,29.74,WSW,240,1.0,6.0,57,0.00,,,0.00,578,Wunderground v.1.15,2013-05-14 14:08:00,
2013-05-14 09:09:00,69.4,53.5,29.74,WSW,246,1.0,6.0,57,0.00,,,0.00,580,Wunderground v.1.15,2013-05-14 14:09:00,
2013-05-14 09:10:00,69.5,53.1,29.74,WSW,246,1.0,2.0,56,0.00,,,0.00,584,Wunderground v.1.15,2013-05-14 14:10:00,
2013-05-14 09:11:00,69.5,53.1,29.74,WSW,246,1.0,2.0,56,0.00,,,0.00,584,Wunderground v.1.15,2013-05-14 14:11:00,
2013-05-14 09:15:00,69.7,53.3,29.74,SW,216,2.0,4.0,56,0.00,,,0.00,596,Wunderground v.1.15,2013-05-14 14:15:00,
2013-05-14 09:16:00,69.8,53.4,29.74,SW,216,2.0,4.0,56,0.00,,,0.00,599,Wunderground v.1.15,2013-05-14 14:16:00,
2013-05-14 09:18:00,70.1,53.7,29.74,SW,216,2.0,4.0,56,0.00,,,0.00,605,Wunderground v.1.15,2013-05-14 14:18:00,
2013-05-14 09:19:00,70.2,53.8,29.74,SW,216,1.0,4.0,56,0.00,,,0.00,605,Wunderground v.1.15,2013-05-14 14:19:00,
2013-05-14 09:21:00,70.6,54.6,29.74,SW,216,1.0,1.0,57,0.00,,,0.00,612,Wunderground v.1.15,2013-05-14 14:21:00,
2013-05-14 09:23:00,71.1,54.1,29.74,SW,216,1.0,1.0,55,0.00,,,0.00,615,Wunderground v.1.15,2013-05-14 14:23:00,
2013-05-14 09:24:00,71.3,54.3,29.74,SW,216,1.0,2.0,55,0.00,,,0.00,617,Wunderground v.1.15,2013-05-14 14:24:00,
2013-05-14 09:26:00,71.5,54.0,29.74,SW,216,1.0,3.0,54,0.00,,,0.00,626,Wunderground v.1.15,2013-05-14 14:26:00,
2013-05-14 09:27:00,71.6,54.1,29.74,SW,216,1.0,3.0,54,0.00,,,0.00,629,Wunderground v.1.15,2013-05-14 14:27:00,
2013-05-14 09:31:00,71.8,54.3,29.74,SW,216,1.0,1.0,54,0.00,,,0.00,638,Wunderground v.1.15,2013-05-14 14:31:00,
2013-05-14 09:32:00,71.8,53.7,29.74,SW,216,1.0,1.0,53,0.00,,,0.00,642,Wunderground v.1.15,2013-05-14 14:32:00,
2013-05-14 09:33:00,71.8,53.7,29.74,SW,216,1.0,1.0,53,0.00,,,0.00,643,Wunderground v.1.15,2013-05-14 14:33:00,
2013-05-14 09:34:00,71.8,53.7,29.74,SW,216,1.0,1.0,53,0.00,,,0.00,645,Wunderground v.1.15,2013-05-14 14:34:00,
2013-05-14 09:37:00,72.1,54.0,29.74,SW,216,1.0,1.0,53,0.00,,,0.00,656,Wunderground v.1.15,2013-05-14 14:37:00,
2013-05-14 09:39:00,72.5,54.4,29.74,SW,216,0.0,1.0,53,0.00,,,0.00,661,Wunderground v.1.15,2013-05-14 14:39:00,
2013-05-14 09:40:00,72.9,54.8,29.74,SW,216,0.0,0.0,53,0.00,,,0.00,663,Wunderground v.1.15,2013-05-14 14:40:00,
2013-05-14 09:42:00,73.3,55.1,29.74,SW,216,0.0,0.0,53,0.00,,,0.00,666,Wunderground v.1.15,2013-05-14 14:42:00,
2013-05-14 09:43:00,73.6,55.4,29.74,SW,216,0.0,0.0,53,0.00,,,0.00,671,Wunderground v.1.15,2013-05-14 14:43:00,
2013-05-14 09:46:00,74.0,54.7,29.74,SW,216,0.0,1.0,51,0.00,,,0.00,677,Wunderground v.1.15,2013-05-14 14:46:00,
2013-05-14 09:47:00,74.2,54.9,29.74,SW,216,0.0,1.0,51,0.00,,,0.00,680,Wunderground v.1.15,2013-05-14 14:47:00,
2013-05-14 09:49:00,74.6,55.3,29.74,SW,216,0.0,1.0,51,0.00,,,0.00,686,Wunderground v.1.15,2013-05-14 14:49:00,
2013-05-14 09:52:00,74.9,54.4,29.74,SW,216,0.0,1.0,49,0.00,,,0.00,693,Wunderground v.1.15,2013-05-14 14:52:00,
2013-05-14 09:53:00,75.0,54.5,29.74,SW,216,0.0,1.0,49,0.00,,,0.00,696,Wunderground v.1.15,2013-05-14 14:53:00,
2013-05-14 09:58:00,75.5,54.4,29.74,SW,216,0.0,1.0,48,0.00,,,0.00,708,Wunderground v.1.15,2013-05-14 14:58:00,
2013-05-14 09:59:00,75.6,54.5,29.75,SW,216,1.0,1.0,48,0.00,,,0.00,708,Wunderground v.1.15,2013-05-14 14:59:00,
2013-05-14 10:02:00,76.0,54.9,29.75,SW,216,0.0,1.0,48,0.00,,,0.00,717,Wunderground v.1.15,2013-05-14 15:02:00,
2013-05-14 10:04:00,76.1,54.4,29.75,SW,216,1.0,2.0,47,0.00,,,0.00,719,Wunderground v.1.15,2013-05-14 15:04:00,
2013-05-14 10:05:00,76.2,54.5,29.75,SW,216,1.0,2.0,47,0.00,,,0.00,722,Wunderground v.1.15,2013-05-14 15:05:00,
2013-05-14 10:07:00,76.3,54.6,29.75,SW,216,1.0,2.0,47,0.00,,,0.00,728,Wunderground v.1.15,2013-05-14 15:07:00,
2013-05-14 10:08:00,76.4,54.7,29.75,SW,216,1.0,2.0,47,0.00,,,0.00,729,Wunderground v.1.15,2013-05-14 15:08:00,
2013-05-14 10:11:00,76.4,54.7,29.75,WSW,237,1.0,2.0,47,0.00,,,0.00,735,Wunderground v.1.15,2013-05-14 15:11:00,
2013-05-14 10:12:00,76.5,54.8,29.75,WSW,237,1.0,2.0,47,0.00,,,0.00,737,Wunderground v.1.15,2013-05-14 15:12:00,
2013-05-14 10:13:00,76.7,55.5,29.75,WSW,237,1.0,2.0,48,0.00,,,0.00,742,Wunderground v.1.15,2013-05-14 15:13:00,
2013-05-14 10:14:00,76.8,55.0,29.75,WSW,237,1.0,3.0,47,0.00,,,0.00,742,Wunderground v.1.15,2013-05-14 15:14:00,
2013-05-14 10:16:00,77.0,54.6,29.75,WSW,237,1.0,3.0,46,0.00,,,0.00,745,Wunderground v.1.15,2013-05-14 15:16:00,
2013-05-14 10:18:00,77.4,55.0,29.75,WSW,237,2.0,3.0,46,0.00,,,0.00,751,Wunderground v.1.15,2013-05-14 15:18:00,
2013-05-14 10:20:00,77.6,55.2,29.76,NW,319,2.0,2.0,46,0.00,,,0.00,754,Wunderground v.1.15,2013-05-14 15:20:00,
2013-05-14 10:23:00,78.1,55.6,29.76,NNW,329,1.0,2.0,46,0.00,,,0.00,759,Wunderground v.1.15,2013-05-14 15:23:00,
2013-05-14 10:24:00,78.1,55.0,29.76,NW,323,1.0,3.0,45,0.00,,,0.00,761,Wunderground v.1.15,2013-05-14 15:24:00,
2013-05-14 10:25:00,78.1,55.0,29.76,West,269,1.0,3.0,45,0.00,,,0.00,763,Wunderground v.1.15,2013-05-14 15:25:00,
2013-05-14 10:28:00,78.0,54.9,29.76,West,269,1.0,4.0,45,0.00,,,0.00,768,Wunderground v.1.15,2013-05-14 15:28:00,
2013-05-14 10:29:00,78.2,55.7,29.76,SW,229,1.0,4.0,46,0.00,,,0.00,773,Wunderground v.1.15,2013-05-14 15:29:00,
2013-05-14 10:30:00,78.2,54.5,29.76,SW,229,2.0,2.0,44,0.00,,,0.00,773,Wunderground v.1.15,2013-05-14 15:30:00,
2013-05-14 10:31:00,78.3,55.2,29.76,SW,229,2.0,2.0,45,0.00,,,0.00,777,Wunderground v.1.15,2013-05-14 15:31:00,
2013-05-14 10:33:00,78.7,55.0,29.76,SW,229,2.0,3.0,44,0.00,,,0.00,780,Wunderground v.1.15,2013-05-14 15:33:00,
2013-05-14 10:35:00,78.8,54.4,29.75,SW,229,2.0,3.0,43,0.00,,,0.00,782,Wunderground v.1.15,2013-05-14 15:35:00,
2013-05-14 10:37:00,78.9,55.1,29.75,SW,227,2.0,4.0,44,0.00,,,0.00,788,Wunderground v.1.15,2013-05-14 15:37:00,
2013-05-14 10:39:00,79.0,54.6,29.75,SW,227,2.0,4.0,43,0.00,,,0.00,789,Wunderground v.1.15,2013-05-14 15:39:00,
2013-05-14 10:40:00,79.1,55.3,29.75,SW,227,2.0,2.0,44,0.00,,,0.00,793,Wunderground v.1.15,2013-05-14 15:40:00,
2013-05-14 10:43:00,80.3,56.4,29.75,SW,227,1.0,3.0,44,0.00,,,0.00,800,Wunderground v.1.15,2013-05-14 15:43:00,
2013-05-14 10:44:00,80.4,55.9,29.75,SW,223,1.0,3.0,43,0.00,,,0.00,802,Wunderground v.1.15,2013-05-14 15:44:00,
2013-05-14 10:45:00,80.6,56.0,29.75,South,181,1.0,3.0,43,0.00,,,0.00,803,Wunderground v.1.15,2013-05-14 15:45:00,
2013-05-14 10:47:00,80.4,55.9,29.75,SE,130,1.0,4.0,43,0.00,,,0.00,807,Wunderground v.1.15,2013-05-14 15:47:00,
2013-05-14 10:51:00,80.6,56.0,29.75,ENE,69,1.0,2.0,43,0.00,,,0.00,814,Wunderground v.1.15,2013-05-14 15:51:00,
2013-05-14 10:52:00,80.7,56.1,29.75,East,97,2.0,2.0,43,0.00,,,0.00,816,Wunderground v.1.15,2013-05-14 15:52:00,
2013-05-14 10:53:00,80.8,56.2,29.75,ESE,107,2.0,2.0,43,0.00,,,0.00,817,Wunderground v.1.15,2013-05-14 15:53:00,
2013-05-14 10:55:00,80.9,55.7,29.75,East,82,2.0,2.0,42,0.00,,,0.00,821,Wunderground v.1.15,2013-05-14 15:55:00,
2013-05-14 10:57:00,80.8,55.6,29.75,ENE,67,1.0,3.0,42,0.00,,,0.00,824,Wunderground v.1.15,2013-05-14 15:57:00,
2013-05-14 10:59:00,80.6,55.4,29.75,East,80,1.0,3.0,42,0.00,,,0.00,828,Wunderground v.1.15,2013-05-14 15:59:00,
2013-05-14 11:02:00,80.5,55.3,29.75,East,79,1.0,1.0,42,0.00,,,0.00,831,Wunderground v.1.15,2013-05-14 16:02:00,
2013-05-14 11:03:00,80.5,55.3,29.75,ENE,71,1.0,2.0,42,0.00,,,0.00,835,Wunderground v.1.15,2013-05-14 16:03:00,
2013-05-14 11:07:00,80.0,54.8,29.75,NNE,21,1.0,4.0,42,0.00,,,0.00,842,Wunderground v.1.15,2013-05-14 16:07:00,
2013-05-14 11:08:00,79.9,54.8,29.75,NNE,22,2.0,4.0,42,0.00,,,0.00,842,Wunderground v.1.15,2013-05-14 16:08:00,
2013-05-14 11:09:00,79.8,55.3,29.75,North,11,2.0,4.0,43,0.00,,,0.00,842,Wunderground v.1.15,2013-05-14 16:09:00,
2013-05-14 11:10:00,79.8,55.3,29.75,ENE,73,2.0,2.0,43,0.00,,,0.00,844,Wunderground v.1.15,2013-05-14 16:10:00,
2013-05-14 11:11:00,79.7,55.2,29.75,NE,53,2.0,2.0,43,0.00,,,0.00,846,Wunderground v.1.15,2013-05-14 16:11:00,
2013-05-14 11:14:00,79.8,55.3,29.75,NE,55,3.0,4.0,43,0.00,,,0.00,847,Wunderground v.1.15,2013-05-14 16:14:00,
2013-05-14 11:16:00,79.8,54.7,29.75,NNE,28,3.0,4.0,42,0.00,,,0.00,849,Wunderground v.1.15,2013-05-14 16:16:00,
2013-05-14 11:17:00,79.8,54.7,29.75,NNE,28,2.0,4.0,42,0.00,,,0.00,851,Wunderground v.1.15,2013-05-14 16:17:00,
2013-05-14 11:22:00,80.9,55.0,29.74,SSE,159,3.0,6.0,41,0.00,,,0.00,860,Wunderground v.1.15,2013-05-14 16:22:00,
2013-05-14 11:23:00,81.2,55.3,29.74,SSE,158,3.0,6.0,41,0.00,,,0.00,860,Wunderground v.1.15,2013-05-14 16:23:00,
2013-05-14 11:28:00,82.9,55.4,29.74,ENE,59,2.0,6.0,39,0.00,,,0.00,868,Wunderground v.1.15,2013-05-14 16:28:00,
2013-05-14 11:29:00,83.1,55.6,29.74,SSE,162,2.0,6.0,39,0.00,,,0.00,868,Wunderground v.1.15,2013-05-14 16:29:00,
2013-05-14 11:30:00,83.3,55.0,29.74,SSE,163,2.0,2.0,38,0.00,,,0.00,870,Wunderground v.1.15,2013-05-14 16:30:00,
2013-05-14 11:31:00,83.4,55.1,29.74,SSE,163,2.0,2.0,38,0.00,,,0.00,872,Wunderground v.1.15,2013-05-14 16:31:00,
2013-05-14 11:36:00,83.3,54.3,29.74,SE,134,2.0,6.0,37,0.00,,,0.00,877,Wunderground v.1.15,2013-05-14 16:36:00,
2013-05-14 11:38:00,83.2,54.2,29.74,SE,129,2.0,6.0,37,0.00,,,0.00,877,Wunderground v.1.15,2013-05-14 16:38:00,
2013-05-14 11:40:00,83.2,54.2,29.74,ESE,113,2.0,2.0,37,0.00,,,0.00,881,Wunderground v.1.15,2013-05-14 16:40:00,
2013-05-14 11:41:00,83.3,54.3,29.74,ENE,74,2.0,4.0,37,0.00,,,0.00,884,Wunderground v.1.15,2013-05-14 16:41:00,
2013-05-14 11:44:00,83.5,53.0,29.74,South,187,3.0,4.0,35,0.00,,,0.00,893,Wunderground v.1.15,2013-05-14 16:44:00,
2013-05-14 11:45:00,83.5,53.7,29.74,SSW,207,2.0,4.0,36,0.00,,,0.00,896,Wunderground v.1.15,2013-05-14 16:45:00,
2013-05-14 11:48:00,83.9,54.8,29.74,South,173,2.0,4.0,37,0.00,,,0.00,926,Wunderground v.1.15,2013-05-14 16:48:00,
2013-05-14 11:49:00,84.0,54.2,29.74,ESE,121,2.0,5.0,36,0.00,,,0.00,932,Wunderground v.1.15,2013-05-14 16:49:00,
2013-05-14 11:50:00,84.2,55.1,29.74,South,188,3.0,4.0,37,0.00,,,0.00,946,Wunderground v.1.15,2013-05-14 16:50:00,
2013-05-14 11:53:00,84.6,55.5,29.74,SSE,168,2.0,4.0,37,0.00,,,0.00,979,Wunderground v.1.15,2013-05-14 16:53:00,
2013-05-14 11:55:00,84.8,53.3,29.74,South,187,2.0,4.0,34,0.00,,,0.00,997,Wunderground v.1.15,2013-05-14 16:55:00,
2013-05-14 11:56:00,84.7,53.2,29.74,SSW,203,2.0,4.0,34,0.00,,,0.00,995,Wunderground v.1.15,2013-05-14 16:56:00,
2013-05-14 11:58:00,84.8,54.1,29.74,South,173,3.0,6.0,35,0.00,,,0.00,988,Wunderground v.1.15,2013-05-14 16:58:00,
2013-05-14 12:01:00,84.9,54.2,29.74,SSE,147,3.0,3.0,35,0.00,,,0.00,962,Wunderground v.1.15,2013-05-14 17:01:00,
2013-05-14 12:02:00,85.2,55.2,29.74,SSE,161,3.0,3.0,36,0.00,,,0.00,972,Wunderground v.1.15,2013-05-14 17:02:00,
2013-05-14 12:03:00,85.6,54.8,29.74,SE,131,3.0,9.0,35,0.00,,,0.00,997,Wunderground v.1.15,2013-05-14 17:03:00,
2013-05-14 12:07:00,85.3,49.4,29.74,South,172,5.0,9.0,29,0.00,,,0.00,1099,Wunderground v.1.15,2013-05-14 17:07:00,
2013-05-14 12:08:00,85.2,49.4,29.74,SSE,160,5.0,9.0,29,0.00,,,0.00,1081,Wunderground v.1.15,2013-05-14 17:08:00,
2013-05-14 12:13:00,86.2,50.2,29.75,SW,220,5.0,8.0,29,0.00,,,0.00,573,Wunderground v.1.15,2013-05-14 17:13:00,
2013-05-14 12:14:00,86.2,51.1,29.75,South,185,4.0,8.0,30,0.00,,,0.00,573,Wunderground v.1.15,2013-05-14 17:14:00,
2013-05-14 12:16:00,86.1,49.2,29.76,SSW,194,4.0,8.0,28,0.00,,,0.00,457,Wunderground v.1.15,2013-05-14 17:16:00,
2013-05-14 12:19:00,85.9,49.0,29.76,SSW,206,4.0,8.0,28,0.00,,,0.00,557,Wunderground v.1.15,2013-05-14 17:19:00,
2013-05-14 12:20:00,85.9,49.0,29.76,SSW,206,4.0,4.0,28,0.00,,,0.00,557,Wunderground v.1.15,2013-05-14 17:20:00,
2013-05-14 12:21:00,85.9,50.0,29.76,SSW,209,4.0,4.0,29,0.00,,,0.00,513,Wunderground v.1.15,2013-05-14 17:21:00,
2013-05-14 12:23:00,86.2,51.1,29.77,WNW,302,3.0,4.0,30,0.00,,,0.00,545,Wunderground v.1.15,2013-05-14 17:23:00,
2013-05-14 12:25:00,86.4,49.4,29.77,NW,317,3.0,4.0,28,0.00,,,0.00,413,Wunderground v.1.15,2013-05-14 17:25:00,
2013-05-14 12:26:00,86.5,50.5,29.77,SSW,213,3.0,5.0,29,0.00,,,0.00,366,Wunderground v.1.15,2013-05-14 17:26:00,
2013-05-14 12:28:00,86.5,50.5,29.77,WSW,250,4.0,8.0,29,0.00,,,0.00,330,Wunderground v.1.15,2013-05-14 17:28:00,
2013-05-14 12:30:00,86.4,50.4,29.77,SW,228,4.0,4.0,29,0.00,,,0.00,334,Wunderground v.1.15,2013-05-14 17:30:00,
2013-05-14 12:31:00,86.4,51.3,29.78,SW,236,4.0,5.0,30,0.00,,,0.00,322,Wunderground v.1.15,2013-05-14 17:31:00,
2013-05-14 12:32:00,86.3,52.1,29.78,WSW,240,4.0,5.0,31,0.00,,,0.00,320,Wunderground v.1.15,2013-05-14 17:32:00,
2013-05-14 12:33:00,86.3,53.0,29.78,West,265,4.0,5.0,32,0.00,,,0.00,297,Wunderground v.1.15,2013-05-14 17:33:00,
2013-05-14 12:36:00,86.3,53.0,29.78,NNE,22,3.0,5.0,32,0.00,,,0.00,272,Wunderground v.1.15,2013-05-14 17:36:00,
2013-05-14 12:37:00,86.3,53.0,29.78,West,277,3.0,5.0,32,0.00,,,0.00,262,Wunderground v.1.15,2013-05-14 17:37:00,
2013-05-14 12:39:00,86.2,52.9,29.78,West,265,2.0,5.0,32,0.00,,,0.00,216,Wunderground v.1.15,2013-05-14 17:39:00,
2013-05-14 12:42:00,86.0,51.8,29.78,NW,320,2.0,4.0,31,0.00,,,0.00,209,Wunderground v.1.15,2013-05-14 17:42:00,
2013-05-14 12:43:00,85.9,50.9,29.78,West,278,2.0,4.0,30,0.00,,,0.00,237,Wunderground v.1.15,2013-05-14 17:43:00,
2013-05-14 12:45:00,85.8,51.7,29.77,West,281,2.0,4.0,31,0.00,,,0.00,285,Wunderground v.1.15,2013-05-14 17:45:00,
2013-05-14 12:47:00,85.7,51.6,29.77,WSW,256,2.0,4.0,31,0.00,,,0.00,410,Wunderground v.1.15,2013-05-14 17:47:00,
2013-05-14 12:48:00,85.5,51.4,29.77,WSW,256,2.0,4.0,31,0.00,,,0.00,452,Wunderground v.1.15,2013-05-14 17:48:00,
2013-05-14 12:49:00,85.4,52.2,29.76,WSW,256,2.0,4.0,32,0.00,,,0.00,492,Wunderground v.1.15,2013-05-14 17:49:00,
2013-05-14 12:51:00,85.3,51.2,29.76,WSW,256,1.0,1.0,31,0.00,,,0.00,916,Wunderground v.1.15,2013-05-14 17:51:00,
2013-05-14 12:53:00,85.5,51.4,29.76,WSW,251,1.0,2.0,31,0.00,,,0.00,916,Wunderground v.1.15,2013-05-14 17:53:00,
2013-05-14 12:54:00,85.6,52.4,29.76,WSW,251,1.0,2.0,32,0.00,,,0.00,853,Wunderground v.1.15,2013-05-14 17:54:00,
2013-05-14 12:55:00,85.6,52.4,29.76,WSW,252,1.0,2.0,32,0.00,,,0.00,853,Wunderground v.1.15,2013-05-14 17:55:00,
2013-05-14 12:57:00,85.8,53.4,29.76,WSW,252,1.0,2.0,33,0.00,,,0.00,455,Wunderground v.1.15,2013-05-14 17:57:00,
2013-05-14 12:58:00,85.8,51.7,29.76,WSW,252,1.0,2.0,31,0.00,,,0.00,452,Wunderground v.1.15,2013-05-14 17:58:00,
2013-05-14 12:59:00,85.8,51.7,29.76,WSW,250,1.0,4.0,31,0.00,,,0.00,448,Wunderground v.1.15,2013-05-14 17:59:00,
2013-05-14 13:02:00,85.7,51.6,29.76,SW,229,2.0,6.0,31,0.00,,,0.00,457,Wunderground v.1.15,2013-05-14 18:02:00,
2013-05-14 13:03:00,85.6,51.5,29.76,SW,223,2.0,6.0,31,0.00,,,0.00,385,Wunderground v.1.15,2013-05-14 18:03:00,
2013-05-14 13:05:00,85.5,52.3,29.76,SW,221,3.0,6.0,32,0.00,,,0.00,404,Wunderground v.1.15,2013-05-14 18:05:00,
2013-05-14 13:07:00,85.3,52.1,29.76,SW,225,4.0,6.0,32,0.00,,,0.00,355,Wunderground v.1.15,2013-05-14 18:07:00,
2013-05-14 13:08:00,85.2,52.0,29.76,WSW,239,4.0,6.0,32,0.00,,,0.00,294,Wunderground v.1.15,2013-05-14 18:08:00,
2013-05-14 13:10:00,85.2,52.0,29.76,SW,220,4.0,4.0,32,0.00,,,0.00,237,Wunderground v.1.15,2013-05-14 18:10:00,
2013-05-14 13:12:00,85.1,51.9,29.76,SW,227,4.0,4.0,32,0.00,,,0.00,209,Wunderground v.1.15,2013-05-14 18:12:00,
2013-05-14 13:14:00,85.0,52.7,29.76,SW,227,4.0,4.0,33,0.00,,,0.00,193,Wunderground v.1.15,2013-05-14 18:14:00,
2013-05-14 13:16:00,84.9,50.0,29.75,SW,220,4.0,4.0,30,0.00,,,0.00,188,Wunderground v.1.15,2013-05-14 18:16:00,
2013-05-14 13:18:00,84.8,51.7,29.75,SW,220,3.0,4.0,32,0.00,,,0.00,188,Wunderground v.1.15,2013-05-14 18:18:00,
2013-05-14 13:19:00,84.9,51.7,29.75,SW,220,3.0,4.0,32,0.00,,,0.00,188,Wunderground v.1.15,2013-05-14 18:19:00,
2013-05-14 13:20:00,84.8,50.8,29.75,SW,220,2.0,2.0,31,0.00,,,0.00,190,Wunderground v.1.15,2013-05-14 18:20:00,
2013-05-14 13:22:00,84.8,49.0,29.75,SW,220,2.0,3.0,29,0.00,,,0.00,227,Wunderground v.1.15,2013-05-14 18:22:00,
2013-05-14 13:24:00,84.8,49.0,29.75,SW,220,2.0,3.0,29,0.00,,,0.00,267,Wunderground v.1.15,2013-05-14 18:24:00,
2013-05-14 13:25:00,84.9,50.0,29.75,SW,220,2.0,3.0,30,0.00,,,0.00,279,Wunderground v.1.15,2013-05-14 18:25:00,
2013-05-14 13:28:00,85.1,49.3,29.75,SW,220,1.0,3.0,29,0.00,,,0.00,350,Wunderground v.1.15,2013-05-14 18:28:00,
2013-05-14 13:29:00,85.2,49.4,29.75,SW,220,1.0,3.0,29,0.00,,,0.00,392,Wunderground v.1.15,2013-05-14 18:29:00,
2013-05-14 13:30:00,85.4,49.5,29.75,SW,220,1.0,1.0,29,0.00,,,0.00,439,Wunderground v.1.15,2013-05-14 18:30:00,
2013-05-14 13:34:00,85.9,49.0,29.74,SW,220,0.0,1.0,28,0.00,,,0.00,457,Wunderground v.1.15,2013-05-14 18:34:00,
2013-05-14 13:35:00,85.9,49.0,29.74,SW,220,0.0,1.0,28,0.00,,,0.00,533,Wunderground v.1.15,2013-05-14 18:35:00,
2013-05-14 13:36:00,86.1,50.1,29.74,SW,220,0.0,1.0,29,0.00,,,0.00,533,Wunderground v.1.15,2013-05-14 18:36:00,
2013-05-14 13:39:00,86.3,51.2,29.74,SW,220,0.0,1.0,30,0.00,,,0.00,512,Wunderground v.1.15,2013-05-14 18:39:00,
2013-05-14 13:40:00,86.3,48.4,29.74,SW,220,0.0,0.0,27,0.00,,,0.00,519,Wunderground v.1.15,2013-05-14 18:40:00,
2013-05-14 13:41:00,86.2,47.3,29.74,SW,220,0.0,1.0,26,0.00,,,0.00,524,Wunderground v.1.15,2013-05-14 18:41:00,
2013-05-14 13:43:00,86.1,47.2,29.74,SW,220,0.0,1.0,26,0.00,,,0.00,473,Wunderground v.1.15,2013-05-14 18:43:00,
2013-05-14 13:47:00,86.7,47.7,29.74,NE,55,1.0,3.0,26,0.00,,,0.00,469,Wunderground v.1.15,2013-05-14 18:47:00,
2013-05-14 13:48:00,86.8,48.8,29.74,ENE,64,1.0,3.0,27,0.00,,,0.00,478,Wunderground v.1.15,2013-05-14 18:48:00,
2013-05-14 13:50:00,86.7,47.7,29.73,ENE,70,1.0,1.0,26,0.00,,,0.00,478,Wunderground v.1.15,2013-05-14 18:50:00,
2013-05-14 13:52:00,86.6,48.6,29.73,SSE,165,2.0,6.0,27,0.00,,,0.00,550,Wunderground v.1.15,2013-05-14 18:52:00,
2013-05-14 13:53:00,86.5,47.5,29.73,SW,224,2.0,6.0,26,0.00,,,0.00,1069,Wunderground v.1.15,2013-05-14 18:53:00,
2013-05-14 13:58:00,87.1,49.1,29.73,East,88,2.0,6.0,27,0.00,,,0.00,965,Wunderground v.1.15,2013-05-14 18:58:00,
2013-05-14 13:59:00,87.1,49.1,29.73,East,90,2.0,6.0,27,0.00,,,0.00,965,Wunderground v.1.15,2013-05-14 18:59:00,
2013-05-14 14:01:00,87.1,50.0,29.72,East,86,2.0,2.0,28,0.00,,,0.00,965,Wunderground v.1.15,2013-05-14 19:01:00,
2013-05-14 14:02:00,87.1,49.1,29.72,East,92,2.0,4.0,27,0.00,,,0.00,965,Wunderground v.1.15,2013-05-14 19:02:00,
2013-05-14 14:04:00,87.3,50.2,29.72,East,101,2.0,5.0,28,0.00,,,0.00,287,Wunderground v.1.15,2013-05-14 19:04:00,
2013-05-14 14:07:00,87.1,50.0,29.71,SSE,154,3.0,5.0,28,0.00,,,0.00,313,Wunderground v.1.15,2013-05-14 19:07:00,
2013-05-14 14:10:00,86.5,49.5,29.71,SSE,154,4.0,10.0,28,0.00,,,0.00,905,Wunderground v.1.15,2013-05-14 19:10:00,
2013-05-14 14:11:00,86.6,50.6,29.71,South,174,4.0,10.0,29,0.00,,,0.00,904,Wunderground v.1.15,2013-05-14 19:11:00,
2013-05-14 14:12:00,86.8,49.8,29.71,SSE,164,4.0,10.0,28,0.00,,,0.00,900,Wunderground v.1.15,2013-05-14 19:12:00,
2013-05-14 14:14:00,87.1,50.0,29.70,South,171,4.0,10.0,28,0.00,,,0.00,886,Wunderground v.1.15,2013-05-14 19:14:00,
2013-05-14 14:15:00,87.2,49.1,29.70,South,173,4.0,10.0,27,0.00,,,0.00,874,Wunderground v.1.15,2013-05-14 19:15:00,
2013-05-14 14:16:00,87.4,49.3,29.70,South,189,4.0,10.0,27,0.00,,,0.00,881,Wunderground v.1.15,2013-05-14 19:16:00,
2013-05-14 14:17:00,87.4,49.3,29.70,South,182,4.0,10.0,27,0.00,,,0.00,884,Wunderground v.1.15,2013-05-14 19:17:00,
2013-05-14 14:18:00,87.5,49.4,29.70,SE,130,4.0,10.0,27,0.00,,,0.00,884,Wunderground v.1.15,2013-05-14 19:18:00,
2013-05-14 14:19:00,87.6,51.4,29.70,SE,134,4.0,10.0,29,0.00,,,0.00,854,Wunderground v.1.15,2013-05-14 19:19:00,
2013-05-14 14:20:00,87.7,48.6,29.70,South,178,3.0,4.0,26,0.00,,,0.00,888,Wunderground v.1.15,2013-05-14 19:20:00,
2013-05-14 14:25:00,88.2,49.0,29.69,ESE,117,3.0,6.0,26,0.00,,,0.00,893,Wunderground v.1.15,2013-05-14 19:25:00,
2013-05-14 14:26:00,88.3,48.0,29.69,SE,127,3.0,6.0,25,0.00,,,0.00,888,Wunderground v.1.15,2013-05-14 19:26:00,
2013-05-14 14:30:00,88.4,48.1,29.68,East,81,4.0,4.0,25,0.00,,,0.00,911,Wunderground v.1.15,2013-05-14 19:30:00,
2013-05-14 14:32:00,88.5,49.2,29.68,SSW,195,5.0,8.0,26,0.00,,,0.00,881,Wunderground v.1.15,2013-05-14 19:32:00,
2013-05-14 14:33:00,88.5,49.2,29.68,ESE,117,5.0,11.0,26,0.00,,,0.00,867,Wunderground v.1.15,2013-05-14 19:33:00,
2013-05-14 14:34:00,88.6,47.2,29.68,East,100,6.0,11.0,24,0.00,,,0.00,867,Wunderground v.1.15,2013-05-14 19:34:00,
2013-05-14 14:37:00,88.4,48.1,29.68,ESE,123,7.0,11.0,25,0.00,,,0.00,853,Wunderground v.1.15,2013-05-14 19:37:00,
2013-05-14 14:38:00,88.5,48.2,29.67,ESE,118,7.0,11.0,25,0.00,,,0.00,849,Wunderground v.1.15,2013-05-14 19:38:00,
2013-05-14 14:39:00,88.5,47.1,29.67,SSE,156,7.0,11.0,24,0.00,,,0.00,844,Wunderground v.1.15,2013-05-14 19:39:00,
2013-05-14 14:41:00,88.7,49.4,29.67,SSW,194,7.0,7.0,26,0.00,,,0.00,837,Wunderground v.1.15,2013-05-14 19:41:00,
2013-05-14 14:43:00,89.0,48.6,29.67,South,185,7.0,7.0,25,0.00,,,0.00,830,Wunderground v.1.15,2013-05-14 19:43:00,
2013-05-14 14:46:00,89.2,47.7,29.66,SE,125,5.0,7.0,24,0.00,,,0.00,823,Wunderground v.1.15,2013-05-14 19:46:00,
2013-05-14 14:48:00,89.5,47.9,29.66,SSE,157,4.0,9.0,24,0.00,,,0.00,814,Wunderground v.1.15,2013-05-14 19:48:00,
2013-05-14 14:49:00,89.5,47.9,29.66,SE,143,4.0,9.0,24,0.00,,,0.00,814,Wunderground v.1.15,2013-05-14 19:49:00,
2013-05-14 14:50:00,89.5,47.9,29.66,SSE,159,4.0,4.0,24,0.00,,,0.00,812,Wunderground v.1.15,2013-05-14 19:50:00,
2013-05-14 14:53:00,89.6,49.1,29.65,SE,129,5.0,14.0,25,0.00,,,0.00,809,Wunderground v.1.15,2013-05-14 19:53:00,
2013-05-14 14:54:00,89.5,47.9,29.65,SSE,162,5.0,14.0,24,0.00,,,0.00,805,Wunderground v.1.15,2013-05-14 19:54:00,
2013-05-14 14:55:00,89.5,47.9,29.65,SSE,160,5.0,14.0,24,0.00,,,0.00,803,Wunderground v.1.15,2013-05-14 19:55:00,
2013-05-14 14:56:00,89.4,47.9,29.65,South,176,5.0,14.0,24,0.00,,,0.00,802,Wunderground v.1.15,2013-05-14 19:56:00,
2013-05-14 15:00:00,89.2,49.8,29.64,SW,231,7.0,7.0,26,0.00,,,0.00,791,Wunderground v.1.15,2013-05-14 20:00:00,
2013-05-14 15:01:00,89.4,52.0,29.64,South,185,6.0,7.0,28,0.00,,,0.00,791,Wunderground v.1.15,2013-05-14 20:01:00,
2013-05-14 15:02:00,89.4,51.0,29.64,South,180,6.0,7.0,27,0.00,,,0.00,793,Wunderground v.1.15,2013-05-14 20:02:00,
2013-05-14 15:06:00,89.5,47.9,29.64,SE,144,7.0,12.0,24,0.00,,,0.00,782,Wunderground v.1.15,2013-05-14 20:06:00,
2013-05-14 15:08:00,89.5,49.0,29.64,South,185,5.0,12.0,25,0.00,,,0.00,779,Wunderground v.1.15,2013-05-14 20:08:00,
2013-05-14 15:09:00,89.5,49.0,29.63,South,191,5.0,12.0,25,0.00,,,0.00,777,Wunderground v.1.15,2013-05-14 20:09:00,
2013-05-14 15:11:00,89.7,48.1,29.64,SSE,165,6.0,8.0,24,0.00,,,0.00,773,Wunderground v.1.15,2013-05-14 20:11:00,
2013-05-14 15:13:00,89.7,49.2,29.63,SE,141,6.0,8.0,25,0.00,,,0.00,766,Wunderground v.1.15,2013-05-14 20:13:00,
2013-05-14 15:14:00,89.7,49.2,29.64,South,173,6.0,9.0,25,0.00,,,0.00,766,Wunderground v.1.15,2013-05-14 20:14:00,
2013-05-14 15:17:00,89.7,49.2,29.63,South,190,6.0,9.0,25,0.00,,,0.00,756,Wunderground v.1.15,2013-05-14 20:17:00,
2013-05-14 15:19:00,89.5,50.1,29.63,SSE,148,7.0,11.0,26,0.00,,,0.00,758,Wunderground v.1.15,2013-05-14 20:19:00,
2013-05-14 15:20:00,89.4,50.0,29.63,SSE,165,7.0,7.0,26,0.00,,,0.00,752,Wunderground v.1.15,2013-05-14 20:20:00,
2013-05-14 15:21:00,89.4,51.0,29.63,ESE,123,7.0,7.0,27,0.00,,,0.00,749,Wunderground v.1.15,2013-05-14 20:21:00,
2013-05-14 15:22:00,89.5,50.1,29.63,ESE,120,7.0,9.0,26,0.00,,,0.00,752,Wunderground v.1.15,2013-05-14 20:22:00,
2013-05-14 15:27:00,89.5,50.1,29.62,South,190,8.0,10.0,26,0.00,,,0.00,744,Wunderground v.1.15,2013-05-14 20:27:00,
2013-05-14 15:28:00,89.4,51.0,29.62,South,178,7.0,10.0,27,0.00,,,0.00,738,Wunderground v.1.15,2013-05-14 20:28:00,
2013-05-14 15:29:00,89.4,51.0,29.62,SSE,150,7.0,10.0,27,0.00,,,0.00,735,Wunderground v.1.15,2013-05-14 20:29:00,
2013-05-14 15:31:00,89.5,50.1,29.62,SE,146,8.0,21.0,26,0.00,,,0.00,733,Wunderground v.1.15,2013-05-14 20:31:00,
2013-05-14 15:32:00,89.5,49.0,29.62,SSE,165,9.0,21.0,25,0.00,,,0.00,731,Wunderground v.1.15,2013-05-14 20:32:00,
2013-05-14 15:33:00,89.5,51.1,29.62,South,177,8.0,21.0,27,0.00,,,0.00,726,Wunderground v.1.15,2013-05-14 20:33:00,
2013-05-14 15:35:00,89.5,50.1,29.61,SSE,167,9.0,21.0,26,0.00,,,0.00,724,Wunderground v.1.15,2013-05-14 20:35:00,
2013-05-14 15:38:00,89.3,49.9,29.61,SE,142,9.0,21.0,26,0.00,,,0.00,715,Wunderground v.1.15,2013-05-14 20:38:00,
2013-05-14 15:40:00,89.3,49.9,29.61,South,173,10.0,14.0,26,0.00,,,0.00,712,Wunderground v.1.15,2013-05-14 20:40:00,
2013-05-14 15:43:00,89.2,51.8,29.61,SSE,163,10.0,20.0,28,0.00,,,0.00,703,Wunderground v.1.15,2013-05-14 20:43:00,
2013-05-14 15:46:00,89.2,50.8,29.61,SSE,164,10.0,20.0,27,0.00,,,0.00,696,Wunderground v.1.15,2013-05-14 20:46:00,
2013-05-14 15:47:00,89.2,50.8,29.61,SSE,162,11.0,20.0,27,0.00,,,0.00,691,Wunderground v.1.15,2013-05-14 20:47:00,
2013-05-14 15:49:00,89.2,50.8,29.60,SSE,165,10.0,20.0,27,0.00,,,0.00,687,Wunderground v.1.15,2013-05-14 20:49:00,
2013-05-14 15:50:00,89.2,51.8,29.60,SE,136,10.0,14.0,28,0.00,,,0.00,693,Wunderground v.1.15,2013-05-14 20:50:00,
2013-05-14 15:52:00,89.2,51.8,29.60,SSE,167,10.0,14.0,28,0.00,,,0.00,687,Wunderground v.1.15,2013-05-14 20:52:00,
2013-05-14 15:54:00,89.4,52.0,29.60,SE,142,9.0,14.0,28,0.00,,,0.00,686,Wunderground v.1.15,2013-05-14 20:54:00,
2013-05-14 15:55:00,89.4,52.0,29.60,SSE,153,9.0,14.0,28,0.00,,,0.00,684,Wunderground v.1.15,2013-05-14 20:55:00,
2013-05-14 15:58:00,89.8,54.2,29.60,SSE,167,8.0,14.0,30,0.00,,,0.00,689,Wunderground v.1.15,2013-05-14 20:58:00,
2013-05-14 16:00:00,90.0,51.5,29.61,SE,146,7.0,9.0,27,0.00,,,0.00,722,Wunderground v.1.15,2013-05-14 21:00:00,
2013-05-14 16:03:00,90.0,51.5,29.61,SSE,159,8.0,18.0,27,0.00,,,0.00,668,Wunderground v.1.15,2013-05-14 21:03:00,
2013-05-14 16:05:00,89.9,51.4,29.60,South,171,8.0,18.0,27,0.00,,,0.00,668,Wunderground v.1.15,2013-05-14 21:05:00,
2013-05-14 16:06:00,89.7,50.3,29.60,South,190,9.0,18.0,26,0.00,,,0.00,668,Wunderground v.1.15,2013-05-14 21:06:00,
2013-05-14 16:08:00,89.5,50.1,29.60,SSE,163,10.0,18.0,26,0.00,,,0.00,269,Wunderground v.1.15,2013-05-14 21:08:00,
2013-05-14 16:09:00,89.4,51.0,29.60,SSW,200,11.0,18.0,27,0.00,,,0.00,332,Wunderground v.1.15,2013-05-14 21:09:00,
2013-05-14 16:12:00,89.2,51.8,29.60,SSE,161,11.0,12.0,28,0.00,,,0.00,636,Wunderground v.1.15,2013-05-14 21:12:00,
2013-05-14 16:14:00,89.1,50.8,29.60,South,190,10.0,12.0,27,0.00,,,0.00,759,Wunderground v.1.15,2013-05-14 21:14:00,
2013-05-14 16:16:00,89.1,51.7,29.60,SSE,167,10.0,12.0,28,0.00,,,0.00,279,Wunderground v.1.15,2013-05-14 21:16:00,
2013-05-14 16:19:00,89.1,49.7,29.60,SSE,165,9.0,12.0,26,0.00,,,0.00,714,Wunderground v.1.15,2013-05-14 21:19:00,
2013-05-14 16:21:00,89.3,48.9,29.59,SSW,201,8.0,19.0,25,0.00,,,0.00,687,Wunderground v.1.15,2013-05-14 21:21:00,
2013-05-14 16:22:00,89.4,50.0,29.60,SSW,200,8.0,19.0,26,0.00,,,0.00,687,Wunderground v.1.15,2013-05-14 21:22:00,
2013-05-14 16:24:00,89.5,50.1,29.59,SSW,198,8.0,19.0,26,0.00,,,0.00,687,Wunderground v.1.15,2013-05-14 21:24:00,
2013-05-14 16:27:00,89.3,49.9,29.60,South,169,8.0,19.0,26,0.00,,,0.00,677,Wunderground v.1.15,2013-05-14 21:27:00,
2013-05-14 16:29:00,89.2,50.8,29.60,ESE,120,8.0,19.0,27,0.00,,,0.00,155,Wunderground v.1.15,2013-05-14 21:29:00,
2013-05-14 16:30:00,89.2,49.8,29.60,SSW,200,8.0,8.0,26,0.00,,,0.00,153,Wunderground v.1.15,2013-05-14 21:30:00,
2013-05-14 16:32:00,89.0,49.7,29.59,SSW,193,8.0,11.0,26,0.00,,,0.00,297,Wunderground v.1.15,2013-05-14 21:32:00,
2013-05-14 16:35:00,88.7,50.4,29.59,SSE,153,8.0,12.0,27,0.00,,,0.00,232,Wunderground v.1.15,2013-05-14 21:35:00,
2013-05-14 16:36:00,88.6,50.3,29.59,SSE,166,8.0,13.0,27,0.00,,,0.00,232,Wunderground v.1.15,2013-05-14 21:36:00,
2013-05-14 16:37:00,88.6,50.3,29.59,South,175,8.0,13.0,27,0.00,,,0.00,232,Wunderground v.1.15,2013-05-14 21:37:00,
2013-05-14 16:42:00,89.1,50.8,29.58,South,186,8.0,11.0,27,0.00,,,0.00,612,Wunderground v.1.15,2013-05-14 21:42:00,
2013-05-14 16:44:00,89.4,52.0,29.58,SSE,153,8.0,15.0,28,0.00,,,0.00,568,Wunderground v.1.15,2013-05-14 21:44:00,
2013-05-14 16:46:00,89.6,51.2,29.58,South,189,8.0,15.0,27,0.00,,,0.00,543,Wunderground v.1.15,2013-05-14 21:46:00,
2013-05-14 16:47:00,89.7,51.3,29.58,South,185,8.0,15.0,27,0.00,,,0.00,540,Wunderground v.1.15,2013-05-14 21:47:00,
2013-05-14 16:50:00,89.7,50.3,29.58,SE,128,11.0,14.0,26,0.00,,,0.00,526,Wunderground v.1.15,2013-05-14 21:50:00,
2013-05-14 16:52:00,89.7,51.3,29.58,SSE,155,11.0,14.0,27,0.00,,,0.00,520,Wunderground v.1.15,2013-05-14 21:52:00,
2013-05-14 16:53:00,89.8,51.4,29.58,South,178,10.0,14.0,27,0.00,,,0.00,517,Wunderground v.1.15,2013-05-14 21:53:00,
2013-05-14 16:54:00,89.8,52.3,29.58,ESE,113,10.0,14.0,28,0.00,,,0.00,515,Wunderground v.1.15,2013-05-14 21:54:00,
2013-05-14 16:57:00,90.0,51.5,29.58,SE,138,9.0,15.0,27,0.00,,,0.00,504,Wunderground v.1.15,2013-05-14 21:57:00,
2013-05-14 16:59:00,90.1,51.6,29.58,SE,143,8.0,15.0,27,0.00,,,0.00,499,Wunderground v.1.15,2013-05-14 21:59:00,
2013-05-14 17:00:00,90.1,51.6,29.58,South,173,7.0,7.0,27,0.00,,,0.00,499,Wunderground v.1.15,2013-05-14 22:00:00,
2013-05-14 17:02:00,90.1,51.6,29.58,SSE,151,7.0,8.0,27,0.00,,,0.00,494,Wunderground v.1.15,2013-05-14 22:02:00,
2013-05-14 17:05:00,90.1,52.6,29.58,SE,145,8.0,14.0,28,0.00,,,0.00,483,Wunderground v.1.15,2013-05-14 22:05:00,
2013-05-14 17:06:00,90.1,52.6,29.58,South,171,9.0,14.0,28,0.00,,,0.00,478,Wunderground v.1.15,2013-05-14 22:06:00,
2013-05-14 17:07:00,90.0,53.5,29.58,South,172,9.0,14.0,29,0.00,,,0.00,480,Wunderground v.1.15,2013-05-14 22:07:00,
2013-05-14 17:09:00,90.0,52.5,29.58,SSE,150,9.0,16.0,28,0.00,,,0.00,489,Wunderground v.1.15,2013-05-14 22:09:00,
2013-05-14 17:10:00,90.0,51.5,29.58,SE,139,10.0,11.0,27,0.00,,,0.00,496,Wunderground v.1.15,2013-05-14 22:10:00,
2013-05-14 17:14:00,89.9,52.4,29.57,SSE,147,11.0,23.0,28,0.00,,,0.00,466,Wunderground v.1.15,2013-05-14 22:14:00,
2013-05-14 17:15:00,89.9,52.4,29.58,SE,142,11.0,23.0,28,0.00,,,0.00,88,Wunderground v.1.15,2013-05-14 22:15:00,
2013-05-14 17:16:00,89.8,51.4,29.58,SE,136,12.0,23.0,27,0.00,,,0.00,81,Wunderground v.1.15,2013-05-14 22:16:00,
2013-05-14 17:17:00,89.7,52.3,29.57,South,184,12.0,23.0,28,0.00,,,0.00,77,Wunderground v.1.15,2013-05-14 22:17:00,
2013-05-14 17:19:00,89.5,53.0,29.57,SE,144,12.0,23.0,29,0.00,,,0.00,81,Wunderground v.1.15,2013-05-14 22:19:00,
2013-05-14 17:20:00,89.4,52.0,29.57,ESE,123,12.0,12.0,28,0.00,,,0.00,90,Wunderground v.1.15,2013-05-14 22:20:00,
2013-05-14 17:24:00,88.9,51.6,29.58,South,186,11.0,13.0,28,0.00,,,0.00,105,Wunderground v.1.15,2013-05-14 22:24:00,
2013-05-14 17:25:00,88.8,52.4,29.58,South,186,10.0,13.0,29,0.00,,,0.00,127,Wunderground v.1.15,2013-05-14 22:25:00,
2013-05-14 17:29:00,88.5,52.2,29.58,SSE,167,8.0,13.0,29,0.00,,,0.00,139,Wunderground v.1.15,2013-05-14 22:29:00,
2013-05-14 17:31:00,88.4,52.1,29.58,SSE,156,7.0,8.0,29,0.00,,,0.00,125,Wunderground v.1.15,2013-05-14 22:31:00,
2013-05-14 17:32:00,88.4,52.1,29.58,SSW,194,7.0,8.0,29,0.00,,,0.00,111,Wunderground v.1.15,2013-05-14 22:32:00,
2013-05-14 17:33:00,88.3,53.8,29.58,South,184,7.0,8.0,31,0.00,,,0.00,104,Wunderground v.1.15,2013-05-14 22:33:00,
2013-05-14 17:35:00,88.2,52.9,29.57,South,170,7.0,8.0,30,0.00,,,0.00,88,Wunderground v.1.15,2013-05-14 22:35:00,
2013-05-14 17:38:00,87.9,53.5,29.57,SSE,150,6.0,8.0,31,0.00,,,0.00,98,Wunderground v.1.15,2013-05-14 22:38:00,
2013-05-14 17:39:00,87.8,53.4,29.57,ESE,111,6.0,8.0,31,0.00,,,0.00,111,Wunderground v.1.15,2013-05-14 22:39:00,
2013-05-14 17:40:00,87.7,53.3,29.57,South,184,6.0,6.0,31,0.00,,,0.00,121,Wunderground v.1.15,2013-05-14 22:40:00,
2013-05-14 17:42:00,87.5,53.1,29.57,SE,139,6.0,8.0,31,0.00,,,0.00,146,Wunderground v.1.15,2013-05-14 22:42:00,
2013-05-14 17:46:00,87.4,53.1,29.57,SE,138,5.0,8.0,31,0.00,,,0.00,206,Wunderground v.1.15,2013-05-14 22:46:00,
2013-05-14 17:47:00,87.4,53.1,29.57,SE,141,6.0,10.0,31,0.00,,,0.00,181,Wunderground v.1.15,2013-05-14 22:47:00,
2013-05-14 17:48:00,87.4,53.9,29.57,SE,128,6.0,11.0,32,0.00,,,0.00,137,Wunderground v.1.15,2013-05-14 22:48:00,
2013-05-14 17:52:00,87.3,53.8,29.57,SE,144,6.0,13.0,32,0.00,,,0.00,102,Wunderground v.1.15,2013-05-14 22:52:00,
2013-05-14 17:53:00,87.3,53.8,29.56,South,184,7.0,13.0,32,0.00,,,0.00,97,Wunderground v.1.15,2013-05-14 22:53:00,
2013-05-14 17:54:00,87.3,53.8,29.56,SSE,155,7.0,13.0,32,0.00,,,0.00,97,Wunderground v.1.15,2013-05-14 22:54:00,
2013-05-14 17:55:00,87.2,53.7,29.56,SE,144,7.0,13.0,32,0.00,,,0.00,93,Wunderground v.1.15,2013-05-14 22:55:00,
2013-05-14 17:59:00,87.1,53.7,29.56,South,169,8.0,13.0,32,0.00,,,0.00,135,Wunderground v.1.15,2013-05-14 22:59:00,
2013-05-14 18:02:00,87.1,53.7,29.55,SW,220,7.0,8.0,32,0.00,,,0.00,120,Wunderground v.1.15,2013-05-14 23:02:00,
2013-05-14 18:03:00,87.1,53.7,29.55,SSE,156,7.0,8.0,32,0.00,,,0.00,116,Wunderground v.1.15,2013-05-14 23:03:00,
2013-05-14 18:07:00,87.0,53.6,29.55,SSE,163,6.0,15.0,32,0.00,,,0.00,97,Wunderground v.1.15,2013-05-14 23:07:00,
2013-05-14 18:08:00,86.9,54.3,29.55,SSE,161,6.0,15.0,33,0.00,,,0.00,93,Wunderground v.1.15,2013-05-14 23:08:00,
2013-05-14 18:12:00,86.8,54.2,29.55,South,175,6.0,6.0,33,0.00,,,0.00,86,Wunderground v.1.15,2013-05-14 23:12:00,
2013-05-14 18:14:00,86.7,54.2,29.55,South,175,7.0,10.0,33,0.00,,,0.00,84,Wunderground v.1.15,2013-05-14 23:14:00,
2013-05-14 18:15:00,86.6,54.1,29.55,South,188,7.0,10.0,33,0.00,,,0.00,83,Wunderground v.1.15,2013-05-14 23:15:00,
2013-05-14 18:17:00,86.5,54.0,29.55,SSE,149,7.0,10.0,33,0.00,,,0.00,83,Wunderground v.1.15,2013-05-14 23:17:00,
2013-05-14 18:21:00,86.4,54.7,29.55,SSE,154,8.0,13.0,34,0.00,,,0.00,278,Wunderground v.1.15,2013-05-14 23:21:00,
2013-05-14 18:23:00,86.5,54.8,29.54,South,190,8.0,13.0,34,0.00,,,0.00,292,Wunderground v.1.15,2013-05-14 23:23:00,
2013-05-14 18:24:00,86.5,54.8,29.54,South,170,8.0,13.0,34,0.00,,,0.00,295,Wunderground v.1.15,2013-05-14 23:24:00,
2013-05-14 18:27:00,86.7,55.0,29.54,South,174,8.0,13.0,34,0.00,,,0.00,302,Wunderground v.1.15,2013-05-14 23:27:00,
2013-05-14 18:28:00,86.8,55.1,29.54,South,182,7.0,13.0,34,0.00,,,0.00,301,Wunderground v.1.15,2013-05-14 23:28:00,
2013-05-14 18:29:00,86.8,55.9,29.54,South,184,7.0,13.0,35,0.00,,,0.00,292,Wunderground v.1.15,2013-05-14 23:29:00,
2013-05-14 18:30:00,86.9,56.0,29.54,South,169,7.0,7.0,35,0.00,,,0.00,292,Wunderground v.1.15,2013-05-14 23:30:00,
2013-05-14 18:31:00,86.9,55.2,29.54,SSW,197,7.0,7.0,34,0.00,,,0.00,288,Wunderground v.1.15,2013-05-14 23:31:00,
2013-05-14 18:36:00,87.1,55.3,29.52,South,171,6.0,12.0,34,0.00,,,0.00,269,Wunderground v.1.15,2013-05-14 23:36:00,
2013-05-14 18:37:00,87.1,55.3,29.52,SSW,192,6.0,12.0,34,0.00,,,0.00,262,Wunderground v.1.15,2013-05-14 23:37:00,
2013-05-14 18:38:00,87.1,55.3,29.52,South,177,6.0,13.0,34,0.00,,,0.00,253,Wunderground v.1.15,2013-05-14 23:38:00,
2013-05-14 18:39:00,87.1,55.3,29.52,South,184,7.0,13.0,34,0.00,,,0.00,246,Wunderground v.1.15,2013-05-14 23:39:00,
2013-05-14 18:43:00,87.0,56.0,29.52,South,180,8.0,13.0,35,0.00,,,0.00,216,Wunderground v.1.15,2013-05-14 23:43:00,
2013-05-14 18:44:00,87.0,56.0,29.52,South,169,8.0,13.0,35,0.00,,,0.00,211,Wunderground v.1.15,2013-05-14 23:44:00,
2013-05-14 18:47:00,86.9,56.0,29.53,South,169,8.0,13.0,35,0.00,,,0.00,95,Wunderground v.1.15,2013-05-14 23:47:00,
2013-05-14 18:49:00,86.8,55.9,29.53,South,178,7.0,13.0,35,0.00,,,0.00,91,Wunderground v.1.15,2013-05-14 23:49:00,
2013-05-14 18:50:00,86.6,55.7,29.53,South,173,7.0,7.0,35,0.00,,,0.00,149,Wunderground v.1.15,2013-05-14 23:50:00,
2013-05-14 18:51:00,86.6,56.5,29.53,SSW,192,6.0,7.0,36,0.00,,,0.00,171,Wunderground v.1.15,2013-05-14 23:51:00,
2013-05-14 18:53:00,86.3,56.2,29.53,South,178,6.0,7.0,36,0.00,,,0.00,111,Wunderground v.1.15,2013-05-14 23:53:00,
2013-05-14 18:54:00,86.3,56.2,29.53,South,184,6.0,7.0,36,0.00,,,0.00,162,Wunderground v.1.15,2013-05-14 23:54:00,
2013-05-14 18:56:00,86.1,56.8,29.53,SSE,147,6.0,12.0,37,0.00,,,0.00,91,Wunderground v.1.15,2013-05-14 23:56:00,
2013-05-14 18:57:00,86.0,56.7,29.53,South,180,7.0,12.0,37,0.00,,,0.00,83,Wunderground v.1.15,2013-05-14 23:57:00,
2013-05-14 18:58:00,85.8,56.5,29.53,SSW,209,7.0,12.0,37,0.00,,,0.00,74,Wunderground v.1.15,2013-05-14 23:58:00,
2013-05-14 19:02:00,85.4,56.9,29.52,South,179,7.0,12.0,38,0.00,,,0.00,127,Wunderground v.1.15,2013-05-15 00:02:00,
2013-05-14 19:03:00,85.2,56.7,29.53,SE,144,8.0,12.0,38,0.00,,,0.00,127,Wunderground v.1.15,2013-05-15 00:03:00,
2013-05-14 19:04:00,85.2,56.7,29.52,SSE,157,8.0,14.0,38,0.00,,,0.00,127,Wunderground v.1.15,2013-05-15 00:04:00,
2013-05-14 19:07:00,84.9,56.5,29.52,South,188,8.0,14.0,38,0.00,,,0.00,125,Wunderground v.1.15,2013-05-15 00:07:00,
2013-05-14 19:09:00,84.8,57.1,29.52,South,173,8.0,14.0,39,0.00,,,0.00,118,Wunderground v.1.15,2013-05-15 00:09:00,
2013-05-14 19:10:00,84.7,57.0,29.52,SE,141,8.0,17.0,39,0.00,,,0.00,100,Wunderground v.1.15,2013-05-15 00:10:00,
2013-05-14 19:13:00,84.4,57.4,29.52,South,179,9.0,17.0,40,0.00,,,0.00,69,Wunderground v.1.15,2013-05-15 00:13:00,
2013-05-14 19:14:00,84.4,57.4,29.52,SSE,148,9.0,17.0,40,0.00,,,0.00,67,Wunderground v.1.15,2013-05-15 00:14:00,
2013-05-14 19:15:00,84.2,57.3,29.52,SE,145,10.0,17.0,40,0.00,,,0.00,65,Wunderground v.1.15,2013-05-15 00:15:00,
2013-05-14 19:17:00,84.0,57.8,29.52,SSE,155,10.0,17.0,41,0.00,,,0.00,65,Wunderground v.1.15,2013-05-15 00:17:00,
2013-05-14 19:22:00,83.6,57.4,29.52,South,169,8.0,9.0,41,0.00,,,0.00,60,Wunderground v.1.15,2013-05-15 00:22:00,
2013-05-14 19:23:00,83.4,57.9,29.52,SSW,192,8.0,9.0,42,0.00,,,0.00,60,Wunderground v.1.15,2013-05-15 00:23:00,
2013-05-14 19:24:00,83.4,57.9,29.52,SE,134,8.0,16.0,42,0.00,,,0.00,60,Wunderground v.1.15,2013-05-15 00:24:00,
2013-05-14 19:25:00,83.3,57.8,29.52,SSW,198,8.0,16.0,42,0.00,,,0.00,58,Wunderground v.1.15,2013-05-15 00:25:00,
2013-05-14 19:27:00,83.1,57.6,29.52,South,173,8.0,16.0,42,0.00,,,0.00,62,Wunderground v.1.15,2013-05-15 00:27:00,
2013-05-14 19:29:00,82.9,57.5,29.52,South,175,8.0,16.0,42,0.00,,,0.00,65,Wunderground v.1.15,2013-05-15 00:29:00,
2013-05-14 19:30:00,82.8,58.0,29.52,South,182,8.0,8.0,43,0.00,,,0.00,62,Wunderground v.1.15,2013-05-15 00:30:00,
2013-05-14 19:32:00,82.7,57.9,29.52,SSE,162,8.0,10.0,43,0.00,,,0.00,56,Wunderground v.1.15,2013-05-15 00:32:00,
2013-05-14 19:33:00,82.7,57.9,29.52,South,181,8.0,10.0,43,0.00,,,0.00,47,Wunderground v.1.15,2013-05-15 00:33:00,
2013-05-14 19:35:00,82.6,57.8,29.52,South,180,8.0,10.0,43,0.00,,,0.00,47,Wunderground v.1.15,2013-05-15 00:35:00,
2013-05-14 19:38:00,82.3,57.6,29.52,SSW,193,8.0,10.0,43,0.00,,,0.00,46,Wunderground v.1.15,2013-05-15 00:38:00,
2013-05-14 19:39:00,82.3,57.6,29.52,SSE,158,7.0,11.0,43,0.00,,,0.00,46,Wunderground v.1.15,2013-05-15 00:39:00,
2013-05-14 19:40:00,82.2,57.5,29.52,SSE,165,7.0,7.0,43,0.00,,,0.00,44,Wunderground v.1.15,2013-05-15 00:40:00,
2013-05-14 19:41:00,82.1,58.0,29.52,SSW,210,7.0,7.0,44,0.00,,,0.00,42,Wunderground v.1.15,2013-05-15 00:41:00,
2013-05-14 19:44:00,81.9,57.8,29.52,SSW,200,7.0,9.0,44,0.00,,,0.00,35,Wunderground v.1.15,2013-05-15 00:44:00,
2013-05-14 19:45:00,81.8,57.8,29.52,South,174,6.0,9.0,44,0.00,,,0.00,32,Wunderground v.1.15,2013-05-15 00:45:00,
2013-05-14 19:46:00,81.8,57.8,29.52,SSE,153,6.0,9.0,44,0.00,,,0.00,32,Wunderground v.1.15,2013-05-15 00:46:00,
2013-05-14 19:48:00,81.6,57.6,29.52,SSE,147,5.0,10.0,44,0.00,,,0.00,25,Wunderground v.1.15,2013-05-15 00:48:00,
2013-05-14 19:51:00,81.4,58.0,29.52,SW,219,5.0,6.0,45,0.00,,,0.00,21,Wunderground v.1.15,2013-05-15 00:51:00,
2013-05-14 19:55:00,81.1,57.7,29.52,South,173,5.0,6.0,45,0.00,,,0.00,19,Wunderground v.1.15,2013-05-15 00:55:00,
2013-05-14 19:56:00,81.0,57.7,29.52,South,180,5.0,7.0,45,0.00,,,0.00,18,Wunderground v.1.15,2013-05-15 00:56:00,
2013-05-14 19:58:00,80.8,58.1,29.52,SSE,167,6.0,8.0,46,0.00,,,0.00,16,Wunderground v.1.15,2013-05-15 00:58:00,
2013-05-14 19:59:00,80.8,58.1,29.52,SE,132,6.0,8.0,46,0.00,,,0.00,16,Wunderground v.1.15,2013-05-15 00:59:00,
2013-05-14 20:01:00,80.7,58.0,29.52,South,186,5.0,6.0,46,0.00,,,0.00,16,Wunderground v.1.15,2013-05-15 01:01:00,
2013-05-14 20:04:00,80.4,57.7,29.52,South,175,5.0,6.0,46,0.00,,,0.00,14,Wunderground v.1.15,2013-05-15 01:04:00,
2013-05-14 20:05:00,80.3,57.6,29.52,SSE,165,5.0,8.0,46,0.00,,,0.00,14,Wunderground v.1.15,2013-05-15 01:05:00,
2013-05-14 20:06:00,80.2,58.1,29.52,SE,132,5.0,8.0,47,0.00,,,0.00,14,Wunderground v.1.15,2013-05-15 01:06:00,
2013-05-14 20:09:00,80.0,58.0,29.52,South,181,4.0,8.0,47,0.00,,,0.00,12,Wunderground v.1.15,2013-05-15 01:09:00,
2013-05-14 20:10:00,79.9,57.9,29.52,South,183,4.0,5.0,47,0.00,,,0.00,11,Wunderground v.1.15,2013-05-15 01:10:00,
2013-05-14 20:11:00,79.9,58.5,29.52,SSE,159,4.0,5.0,48,0.00,,,0.00,11,Wunderground v.1.15,2013-05-15 01:11:00,
2013-05-14 20:12:00,79.8,58.4,29.52,SE,128,4.0,5.0,48,0.00,,,0.00,11,Wunderground v.1.15,2013-05-15 01:12:00,
2013-05-14 20:14:00,79.7,58.3,29.53,SSE,157,5.0,9.0,48,0.00,,,0.00,9,Wunderground v.1.15,2013-05-15 01:14:00,
2013-05-14 20:17:00,79.5,58.1,29.53,South,187,5.0,9.0,48,0.00,,,0.00,7,Wunderground v.1.15,2013-05-15 01:17:00,
2013-05-14 20:19:00,79.4,58.0,29.52,South,182,5.0,9.0,48,0.00,,,0.00,7,Wunderground v.1.15,2013-05-15 01:19:00,
2013-05-14 20:21:00,79.3,58.5,29.52,South,175,5.0,5.0,49,0.00,,,0.00,5,Wunderground v.1.15,2013-05-15 01:21:00,
2013-05-14 20:22:00,79.3,58.5,29.52,SSE,148,5.0,5.0,49,0.00,,,0.00,5,Wunderground v.1.15,2013-05-15 01:22:00,
2013-05-14 20:23:00,79.2,58.4,29.52,SSE,161,4.0,9.0,49,0.00,,,0.00,0,Wunderground v.1.15,2013-05-15 01:23:00,
2013-05-14 20:25:00,79.1,58.3,29.52,South,175,4.0,9.0,49,0.00,,,0.00,0,Wunderground v.1.15,2013-05-15 01:25:00,
2013-05-14 20:28:00,79.0,58.2,29.52,South,178,4.0,9.0,49,0.00,,,0.00,0,Wunderground v.1.15,2013-05-15 01:28:00,
2013-05-14 20:29:00,79.0,58.2,29.53,South,173,5.0,9.0,49,0.00,,,0.00,0,Wunderground v.1.15,2013-05-15 01:29:00,
2013-05-14 20:30:00,78.9,58.1,29.52,South,176,5.0,6.0,49,0.00,,,0.00,0,Wunderground v.1.15,2013-05-15 01:30:00,
2013-05-14 20:31:00,78.9,58.1,29.52,South,174,5.0,6.0,49,0.00,,,0.00,0,Wunderground v.1.15,2013-05-15 01:31:00,
2013-05-14 20:35:00,78.8,58.0,29.52,South,170,5.0,11.0,49,0.00,,,0.00,0,Wunderground v.1.15,2013-05-15 01:35:00,
2013-05-14 20:36:00,78.8,58.0,29.52,South,170,5.0,11.0,49,0.00,,,0.00,0,Wunderground v.1.15,2013-05-15 01:36:00,
2013-05-14 20:37:00,78.8,58.6,29.52,South,170,4.0,11.0,50,0.00,,,0.00,0,Wunderground v.1.15,2013-05-15 01:37:00,
2013-05-14 20:39:00,78.7,58.5,29.52,South,182,4.0,11.0,50,0.00,,,0.00,0,Wunderground v.1.15,2013-05-15 01:39:00,
2013-05-14 20:40:00,78.7,58.5,29.52,South,181,4.0,4.0,50,0.00,,,0.00,0,Wunderground v.1.15,2013-05-15 01:40:00,
2013-05-14 20:42:00,78.6,58.4,29.52,SSE,153,4.0,7.0,50,0.00,,,0.00,0,Wunderground v.1.15,2013-05-15 01:42:00,
2013-05-14 20:44:00,78.6,58.4,29.53,SSE,153,5.0,9.0,50,0.00,,,0.00,0,Wunderground v.1.15,2013-05-15 01:44:00,
2013-05-14 20:45:00,78.6,58.4,29.52,South,179,5.0,9.0,50,0.00,,,0.00,0,Wunderground v.1.15,2013-05-15 01:45:00,
2013-05-14 20:49:00,78.6,58.4,29.53,South,185,4.0,9.0,50,0.00,,,0.00,0,Wunderground v.1.15,2013-05-15 01:49:00,
2013-05-14 20:50:00,78.7,58.5,29.53,SE,144,4.0,10.0,50,0.00,,,0.00,0,Wunderground v.1.15,2013-05-15 01:50:00,
2013-05-14 20:51:00,78.6,58.4,29.53,SSE,166,5.0,10.0,50,0.00,,,0.00,0,Wunderground v.1.15,2013-05-15 01:51:00,
2013-05-14 20:53:00,78.7,58.5,29.53,SSE,167,5.0,10.0,50,0.00,,,0.00,0,Wunderground v.1.15,2013-05-15 01:53:00,
2013-05-14 20:55:00,78.7,58.5,29.53,SSE,155,4.0,10.0,50,0.00,,,0.00,0,Wunderground v.1.15,2013-05-15 01:55:00,
2013-05-14 20:56:00,78.6,58.4,29.53,SSE,150,5.0,10.0,50,0.00,,,0.00,0,Wunderground v.1.15,2013-05-15 01:56:00,
2013-05-14 20:57:00,78.6,58.4,29.53,SSW,196,5.0,10.0,50,0.00,,,0.00,0,Wunderground v.1.15,2013-05-15 01:57:00,
2013-05-14 21:00:00,78.5,58.3,29.53,South,170,5.0,5.0,50,0.00,,,0.00,0,Wunderground v.1.15,2013-05-15 02:00:00,
2013-05-14 21:01:00,78.5,58.3,29.53,South,182,5.0,5.0,50,0.00,,,0.00,0,Wunderground v.1.15,2013-05-15 02:01:00,
2013-05-14 21:04:00,78.4,58.8,29.54,SSE,159,4.0,6.0,51,0.00,,,0.00,0,Wunderground v.1.15,2013-05-15 02:04:00,
2013-05-14 21:05:00,78.4,58.8,29.53,South,171,4.0,6.0,51,0.00,,,0.00,0,Wunderground v.1.15,2013-05-15 02:05:00,
2013-05-14 21:06:00,78.4,58.8,29.53,SSE,168,4.0,6.0,51,0.00,,,0.00,0,Wunderground v.1.15,2013-05-15 02:06:00,
2013-05-14 21:07:00,78.3,58.7,29.54,SSE,159,4.0,7.0,51,0.00,,,0.00,0,Wunderground v.1.15,2013-05-15 02:07:00,
2013-05-14 21:11:00,78.2,58.6,29.53,South,180,5.0,7.0,51,0.00,,,0.00,0,Wunderground v.1.15,2013-05-15 02:11:00,
2013-05-14 21:13:00,78.3,58.7,29.53,South,188,5.0,11.0,51,0.00,,,0.00,0,Wunderground v.1.15,2013-05-15 02:13:00,
2013-05-14 21:14:00,78.3,58.7,29.53,South,169,6.0,11.0,51,0.00,,,0.00,0,Wunderground v.1.15,2013-05-15 02:14:00,
2013-05-14 21:16:00,78.4,58.8,29.53,South,171,6.0,12.0,51,0.00,,,0.00,0,Wunderground v.1.15,2013-05-15 02:16:00,
2013-05-14 21:17:00,78.4,58.8,29.53,SSE,163,7.0,12.0,51,0.00,,,0.00,0,Wunderground v.1.15,2013-05-15 02:17:00,
2013-05-14 21:20:00,78.5,58.9,29.54,South,178,7.0,7.0,51,0.00,,,0.00,0,Wunderground v.1.15,2013-05-15 02:20:00,
2013-05-14 21:21:00,78.5,58.9,29.54,South,188,7.0,7.0,51,0.00,,,0.00,0,Wunderground v.1.15,2013-05-15 02:21:00,
2013-05-14 21:22:00,78.6,59.0,29.54,South,175,7.0,8.0,51,0.00,,,0.00,0,Wunderground v.1.15,2013-05-15 02:22:00,
2013-05-14 21:23:00,78.6,59.0,29.54,SSE,148,7.0,9.0,51,0.00,,,0.00,0,Wunderground v.1.15,2013-05-15 02:23:00,
2013-05-14 21:25:00,78.7,59.0,29.54,South,187,7.0,10.0,51,0.00,,,0.00,0,Wunderground v.1.15,2013-05-15 02:25:00,
2013-05-14 21:27:00,78.8,59.1,29.54,South,183,7.0,10.0,51,0.00,,,0.00,0,Wunderground v.1.15,2013-05-15 02:27:00,
2013-05-14 21:28:00,78.7,59.0,29.54,South,177,7.0,10.0,51,0.00,,,0.00,0,Wunderground v.1.15,2013-05-15 02:28:00,
2013-05-14 21:31:00,78.7,59.0,29.54,South,172,7.0,10.0,51,0.00,,,0.00,0,Wunderground v.1.15,2013-05-15 02:31:00,
2013-05-14 21:32:00,78.7,59.0,29.54,South,183,6.0,10.0,51,0.00,,,0.00,0,Wunderground v.1.15,2013-05-15 02:32:00,
2013-05-14 21:34:00,78.7,59.0,29.54,South,173,6.0,10.0,51,0.00,,,0.00,0,Wunderground v.1.15,2013-05-15 02:34:00,
2013-05-14 21:35:00,78.7,59.0,29.54,SSW,197,6.0,10.0,51,0.00,,,0.00,0,Wunderground v.1.15,2013-05-15 02:35:00,
2013-05-14 21:38:00,78.8,59.1,29.54,South,178,5.0,10.0,51,0.00,,,0.00,0,Wunderground v.1.15,2013-05-15 02:38:00,
2013-05-14 21:39:00,78.8,59.1,29.54,South,182,5.0,10.0,51,0.00,,,0.00,0,Wunderground v.1.15,2013-05-15 02:39:00,
2013-05-14 21:40:00,78.8,59.1,29.55,SSE,148,5.0,6.0,51,0.00,,,0.00,0,Wunderground v.1.15,2013-05-15 02:40:00,
2013-05-14 21:44:00,78.9,59.2,29.55,SW,217,5.0,7.0,51,0.00,,,0.00,0,Wunderground v.1.15,2013-05-15 02:44:00,
2013-05-14 21:45:00,78.9,59.2,29.55,SSW,207,4.0,7.0,51,0.00,,,0.00,0,Wunderground v.1.15,2013-05-15 02:45:00,
2013-05-14 21:46:00,78.9,59.2,29.55,South,169,4.0,7.0,51,0.00,,,0.00,0,Wunderground v.1.15,2013-05-15 02:46:00,
2013-05-14 21:48:00,78.9,59.2,29.55,SSE,165,5.0,7.0,51,0.00,,,0.00,0,Wunderground v.1.15,2013-05-15 02:48:00,
2013-05-14 21:50:00,79.0,59.3,29.55,South,175,4.0,4.0,51,0.00,,,0.00,0,Wunderground v.1.15,2013-05-15 02:50:00,
2013-05-14 21:53:00,79.1,59.4,29.55,South,182,5.0,6.0,51,0.00,,,0.00,0,Wunderground v.1.15,2013-05-15 02:53:00,
2013-05-14 21:55:00,79.1,59.4,29.55,SSE,162,5.0,6.0,51,0.00,,,0.00,0,Wunderground v.1.15,2013-05-15 02:55:00,
2013-05-14 21:56:00,79.1,59.4,29.55,South,171,4.0,6.0,51,0.00,,,0.00,0,Wunderground v.1.15,2013-05-15 02:56:00,
2013-05-14 21:59:00,79.1,59.4,29.55,SSW,205,4.0,6.0,51,0.00,,,0.00,0,Wunderground v.1.15,2013-05-15 02:59:00,
2013-05-14 22:00:00,79.1,59.4,29.55,SSW,203,4.0,5.0,51,0.00,,,0.00,0,Wunderground v.1.15,2013-05-15 03:00:00,
2013-05-14 22:01:00,79.1,59.4,29.55,SSE,158,4.0,5.0,51,0.00,,,0.00,0,Wunderground v.1.15,2013-05-15 03:01:00,
2013-05-14 22:03:00,79.1,59.4,29.55,SSE,166,4.0,5.0,51,0.00,,,0.00,0,Wunderground v.1.15,2013-05-15 03:03:00,
2013-05-14 22:07:00,79.1,59.4,29.55,South,174,4.0,5.0,51,0.00,,,0.00,0,Wunderground v.1.15,2013-05-15 03:07:00,
2013-05-14 22:10:00,79.1,59.4,29.55,SW,218,3.0,3.0,51,0.00,,,0.00,0,Wunderground v.1.15,2013-05-15 03:10:00,
2013-05-14 22:11:00,79.1,59.4,29.55,SW,218,2.0,3.0,51,0.00,,,0.00,0,Wunderground v.1.15,2013-05-15 03:11:00,
2013-05-14 22:12:00,79.1,59.4,29.55,SW,218,2.0,3.0,51,0.00,,,0.00,0,Wunderground v.1.15,2013-05-15 03:12:00,
2013-05-14 22:13:00,79.0,59.3,29.56,SW,218,2.0,3.0,51,0.00,,,0.00,0,Wunderground v.1.15,2013-05-15 03:13:00,
2013-05-14 22:15:00,78.9,59.2,29.56,SW,218,1.0,3.0,51,0.00,,,0.00,0,Wunderground v.1.15,2013-05-15 03:15:00,
2013-05-14 22:16:00,78.8,59.1,29.55,SW,218,1.0,3.0,51,0.00,,,0.00,0,Wunderground v.1.15,2013-05-15 03:16:00,
2013-05-14 22:17:00,78.8,59.1,29.56,SW,218,0.0,3.0,51,0.00,,,0.00,0,Wunderground v.1.15,2013-05-15 03:17:00,
2013-05-14 22:22:00,78.0,59.5,29.56,SW,218,0.0,1.0,53,0.00,,,0.00,0,Wunderground v.1.15,2013-05-15 03:22:00,
2013-05-14 22:23:00,77.8,59.3,29.56,SW,218,0.0,1.0,53,0.00,,,0.00,0,Wunderground v.1.15,2013-05-15 03:23:00,
2013-05-14 22:24:00,77.7,59.2,29.55,SW,218,0.0,1.0,53,0.00,,,0.00,0,Wunderground v.1.15,2013-05-15 03:24:00,
2013-05-14 22:25:00,77.4,59.5,29.56,SW,218,0.0,1.0,54,0.00,,,0.00,0,Wunderground v.1.15,2013-05-15 03:25:00,
2013-05-14 22:27:00,76.9,59.5,29.56,SW,218,0.0,1.0,55,0.00,,,0.00,0,Wunderground v.1.15,2013-05-15 03:27:00,
2013-05-14 22:29:00,76.6,59.2,29.56,SW,218,0.0,1.0,55,0.00,,,0.00,0,Wunderground v.1.15,2013-05-15 03:29:00,
2013-05-14 22:31:00,76.3,58.9,29.56,SW,218,0.0,0.0,55,0.00,,,0.00,0,Wunderground v.1.15,2013-05-15 03:31:00,
2013-05-14 22:32:00,76.2,58.9,29.56,SW,218,0.0,0.0,55,0.00,,,0.00,0,Wunderground v.1.15,2013-05-15 03:32:00,
2013-05-14 22:35:00,75.8,59.5,29.56,SW,218,0.0,1.0,57,0.00,,,0.00,0,Wunderground v.1.15,2013-05-15 03:35:00,
2013-05-14 22:36:00,75.5,59.2,29.56,SW,218,0.0,1.0,57,0.00,,,0.00,0,Wunderground v.1.15,2013-05-15 03:36:00,
2013-05-14 22:37:00,75.4,59.1,29.56,SW,218,0.0,1.0,57,0.00,,,0.00,0,Wunderground v.1.15,2013-05-15 03:37:00,
2013-05-14 22:39:00,75.2,58.9,29.56,SW,218,0.0,1.0,57,0.00,,,0.00,0,Wunderground v.1.15,2013-05-15 03:39:00,
2013-05-14 22:42:00,74.7,58.9,29.56,SW,218,0.0,0.0,58,0.00,,,0.00,0,Wunderground v.1.15,2013-05-15 03:42:00,
2013-05-14 22:43:00,74.5,59.2,29.56,SSW,201,0.0,0.0,59,0.00,,,0.00,0,Wunderground v.1.15,2013-05-15 03:43:00,
2013-05-14 22:46:00,74.1,58.9,29.57,SSW,201,0.0,0.0,59,0.00,,,0.00,0,Wunderground v.1.15,2013-05-15 03:46:00,
2013-05-14 22:47:00,74.0,58.8,29.56,SSW,202,0.0,0.0,59,0.00,,,0.00,0,Wunderground v.1.15,2013-05-15 03:47:00,
2013-05-14 22:50:00,73.7,58.9,29.57,SSW,202,0.0,0.0,60,0.00,,,0.00,0,Wunderground v.1.15,2013-05-15 03:50:00,
2013-05-14 22:51:00,73.5,58.8,29.57,SSW,201,0.0,2.0,60,0.00,,,0.00,0,Wunderground v.1.15,2013-05-15 03:51:00,
2013-05-14 22:55:00,73.0,58.8,29.57,SSW,201,0.0,2.0,61,0.00,,,0.00,0,Wunderground v.1.15,2013-05-15 03:55:00,
2013-05-14 22:56:00,72.8,58.6,29.57,SSW,201,0.0,2.0,61,0.00,,,0.00,0,Wunderground v.1.15,2013-05-15 03:56:00,
2013-05-14 22:59:00,72.5,58.7,29.57,SSW,202,0.0,2.0,62,0.00,,,0.00,0,Wunderground v.1.15,2013-05-15 03:59:00,
2013-05-14 23:01:00,72.2,58.5,29.57,SSW,202,0.0,1.0,62,0.00,,,0.00,0,Wunderground v.1.15,2013-05-15 04:01:00,
2013-05-14 23:04:00,71.7,58.4,29.57,SSW,202,0.0,1.0,63,0.00,,,0.00,0,Wunderground v.1.15,2013-05-15 04:04:00,
2013-05-14 23:05:00,71.6,58.3,29.57,SSW,201,0.0,1.0,63,0.00,,,0.00,0,Wunderground v.1.15,2013-05-15 04:05:00,
2013-05-14 23:06:00,71.5,58.2,29.57,SSW,201,0.0,1.0,63,0.00,,,0.00,0,Wunderground v.1.15,2013-05-15 04:06:00,
2013-05-14 23:07:00,71.3,58.1,29.57,SSW,201,0.0,1.0,63,0.00,,,0.00,0,Wunderground v.1.15,2013-05-15 04:07:00,
2013-05-14 23:09:00,71.0,58.2,29.57,SSW,202,0.0,1.0,64,0.00,,,0.00,0,Wunderground v.1.15,2013-05-15 04:09:00,
2013-05-14 23:13:00,70.3,58.0,29.58,SSW,202,1.0,3.0,65,0.00,,,0.00,0,Wunderground v.1.15,2013-05-15 04:13:00,
2013-05-14 23:14:00,70.3,58.0,29.58,SSW,202,1.0,3.0,65,0.00,,,0.00,0,Wunderground v.1.15,2013-05-15 04:14:00,
2013-05-14 23:15:00,70.2,57.9,29.58,SSW,202,1.0,3.0,65,0.00,,,0.00,0,Wunderground v.1.15,2013-05-15 04:15:00,
2013-05-14 23:18:00,69.9,58.0,29.58,SSW,207,1.0,3.0,66,0.00,,,0.00,0,Wunderground v.1.15,2013-05-15 04:18:00,
2013-05-14 23:19:00,69.8,57.9,29.58,SSW,207,1.0,3.0,66,0.00,,,0.00,0,Wunderground v.1.15,2013-05-15 04:19:00,
2013-05-14 23:21:00,69.6,57.7,29.58,West,271,1.0,1.0,66,0.00,,,0.00,0,Wunderground v.1.15,2013-05-15 04:21:00,
2013-05-14 23:22:00,69.5,57.6,29.58,WNW,300,1.0,1.0,66,0.00,,,0.00,0,Wunderground v.1.15,2013-05-15 04:22:00,
2013-05-14 23:23:00,69.5,58.1,29.58,WNW,300,1.0,1.0,67,0.00,,,0.00,0,Wunderground v.1.15,2013-05-15 04:23:00,
2013-05-14 23:24:00,69.4,58.0,29.58,WNW,300,1.0,1.0,67,0.00,,,0.00,0,Wunderground v.1.15,2013-05-15 04:24:00,
2013-05-14 23:28:00,69.1,57.7,29.59,WNW,300,1.0,1.0,67,0.00,,,0.00,0,Wunderground v.1.15,2013-05-15 04:28:00,
2013-05-14 23:30:00,68.9,57.5,29.59,WNW,300,0.0,0.0,67,0.00,,,0.00,0,Wunderground v.1.15,2013-05-15 04:30:00,
2013-05-14 23:31:00,68.9,57.5,29.59,WNW,300,0.0,1.0,67,0.00,,,0.00,0,Wunderground v.1.15,2013-05-15 04:31:00,
2013-05-14 23:32:00,68.8,57.4,29.59,WNW,300,0.0,1.0,67,0.00,,,0.00,0,Wunderground v.1.15,2013-05-15 04:32:00,
2013-05-14 23:34:00,68.7,57.7,29.59,WNW,300,0.0,1.0,68,0.00,,,0.00,0,Wunderground v.1.15,2013-05-15 04:34:00,
2013-05-14 23:36:00,68.6,57.6,29.59,WNW,300,0.0,1.0,68,0.00,,,0.00,0,Wunderground v.1.15,2013-05-15 04:36:00,
2013-05-14 23:37:00,68.5,57.5,29.59,WNW,300,1.0,2.0,68,0.00,,,0.00,0,Wunderground v.1.15,2013-05-15 04:37:00,
2013-05-14 23:38:00,68.4,57.4,29.59,West,266,1.0,2.0,68,0.00,,,0.00,0,Wunderground v.1.15,2013-05-15 04:38:00,
2013-05-14 23:40:00,68.3,57.7,29.59,West,266,1.0,1.0,69,0.00,,,0.00,0,Wunderground v.1.15,2013-05-15 04:40:00,
2013-05-14 23:43:00,68.0,57.4,29.59,WSW,254,1.0,5.0,69,0.00,,,0.00,0,Wunderground v.1.15,2013-05-15 04:43:00,
2013-05-14 23:44:00,68.0,57.4,29.59,WSW,254,1.0,5.0,69,0.00,,,0.00,0,Wunderground v.1.15,2013-05-15 04:44:00,
2013-05-14 23:45:00,67.9,57.4,29.59,WSW,257,1.0,5.0,69,0.00,,,0.00,0,Wunderground v.1.15,2013-05-15 04:45:00,
2013-05-14 23:49:00,67.5,57.4,29.59,WSW,254,1.0,5.0,70,0.00,,,0.00,0,Wunderground v.1.15,2013-05-15 04:49:00,
2013-05-14 23:51:00,67.4,57.3,29.60,WSW,254,1.0,1.0,70,0.00,,,0.00,0,Wunderground v.1.15,2013-05-15 04:51:00,
2013-05-14 23:52:00,67.3,57.2,29.60,WSW,254,1.0,1.0,70,0.00,,,0.00,0,Wunderground v.1.15,2013-05-15 04:52:00,
2013-05-14 23:54:00,67.1,57.0,29.60,WSW,250,0.0,1.0,70,0.00,,,0.00,0,Wunderground v.1.15,2013-05-15 04:54:00,
2013-05-14 23:57:00,66.9,56.8,29.60,WSW,250,1.0,1.0,70,0.00,,,0.00,0,Wunderground v.1.15,2013-05-15 04:57:00,
2013-05-14 23:58:00,66.8,56.3,29.60,WSW,250,1.0,2.0,69,0.00,,,0.00,0,Wunderground v.1.15,2013-05-15 04:58:00,